Wetterdaten: Sonntag, 06.06.2021
Datum Zeit Temp. Aussen Temp. o. S. Temp +5cm Feuchte Auss Luftdruck Regen Sonnenschein Regendauer Solar Windben Empfang
06.06.2021 00:00 15,9 C 15,0 C 14,5 C 94 % 1023,3 hPa 0,0 l/m 0 min 0 min 0 W/m 6,4 km/h (2 Bft) 95,74 %
06.06.2021 00:02 15,9 C 15,0 C 14,5 C 94 % 1023,3 hPa 0,0 l/m 0 min 0 min 0 W/m 9,7 km/h (2 Bft) 97,83 %
06.06.2021 00:04 15,9 C 15,0 C 14,5 C 94 % 1023,3 hPa 0,0 l/m 0 min 0 min 0 W/m 9,7 km/h (2 Bft) 97,87 %
06.06.2021 00:08 15,8 C 15,0 C 14,5 C 94 % 1023,3 hPa 0,0 l/m 0 min 0 min 0 W/m 12,9 km/h (3 Bft) 97,85 %
06.06.2021 00:10 15,8 C 15,0 C 14,5 C 94 % 1023,3 hPa 0,0 l/m 0 min 0 min 0 W/m 12,9 km/h (3 Bft) 95,74 %
06.06.2021 00:12 15,8 C 15,0 C 14,5 C 94 % 1023,3 hPa 0,0 l/m 0 min 0 min 0 W/m 12,9 km/h (3 Bft) 97,87 %
06.06.2021 00:14 15,7 C 15,0 C 14,5 C 94 % 1023,3 hPa 0,0 l/m 0 min 0 min 0 W/m 9,7 km/h (2 Bft) 97,87 %
06.06.2021 00:16 15,7 C 15,0 C 14,5 C 94 % 1023,3 hPa 0,0 l/m 0 min 0 min 0 W/m 12,9 km/h (3 Bft) 95,74 %
06.06.2021 00:18 15,6 C 15,0 C 14,5 C 94 % 1023,4 hPa 0,0 l/m 0 min 0 min 0 W/m 6,4 km/h (2 Bft) 97,83 %
06.06.2021 00:20 15,6 C 15,0 C 14,5 C 94 % 1023,3 hPa 0,0 l/m 0 min 0 min 0 W/m 6,4 km/h (2 Bft) 97,87 %
06.06.2021 00:22 15,6 C 15,0 C 13,9 C 94 % 1023,3 hPa 0,0 l/m 0 min 0 min 0 W/m 12,9 km/h (3 Bft) 97,87 %
06.06.2021 00:24 15,5 C 15,0 C 13,9 C 94 % 1023,4 hPa 0,0 l/m 0 min 0 min 0 W/m 22,5 km/h (4 Bft) 97,87 %
06.06.2021 00:26 15,5 C 15,0 C 13,9 C 94 % 1023,4 hPa 0,0 l/m 0 min 0 min 0 W/m 19,3 km/h (3 Bft) 95,74 %
06.06.2021 00:28 15,5 C 15,0 C 13,9 C 94 % 1023,4 hPa 0,0 l/m 0 min 0 min 0 W/m 16,1 km/h (3 Bft) 97,87 %
06.06.2021 00:30 15,5 C 15,0 C 13,9 C 94 % 1023,4 hPa 0,0 l/m 0 min 0 min 0 W/m 12,9 km/h (3 Bft) 100,00 %
06.06.2021 00:32 15,5 C 15,0 C 13,9 C 94 % 1023,4 hPa 0,0 l/m 0 min 0 min 0 W/m 16,1 km/h (3 Bft) 100,00 %
06.06.2021 00:34 15,5 C 15,0 C 13,9 C 94 % 1023,4 hPa 0,0 l/m 0 min 0 min 0 W/m 16,1 km/h (3 Bft) 97,87 %
06.06.2021 00:36 15,4 C 15,0 C 13,9 C 94 % 1023,4 hPa 0,0 l/m 0 min 0 min 0 W/m 16,1 km/h (3 Bft) 97,87 %
06.06.2021 00:38 15,4 C 15,0 C 13,9 C 94 % 1023,4 hPa 0,0 l/m 0 min 0 min 0 W/m 16,1 km/h (3 Bft) 100,00 %
06.06.2021 00:40 15,4 C 15,0 C 13,9 C 94 % 1023,4 hPa 0,0 l/m 0 min 0 min 0 W/m 6,4 km/h (2 Bft) 100,00 %
06.06.2021 00:42 15,4 C 15,0 C 13,9 C 94 % 1023,5 hPa 0,0 l/m 0 min 0 min 0 W/m 22,5 km/h (4 Bft) 100,00 %
06.06.2021 00:44 15,4 C 14,4 C 13,9 C 94 % 1023,5 hPa 0,0 l/m 0 min 0 min 0 W/m 16,1 km/h (3 Bft) 100,00 %
06.06.2021 00:46 15,4 C 14,4 C 13,9 C 94 % 1023,4 hPa 0,0 l/m 0 min 0 min 0 W/m 9,7 km/h (2 Bft) 100,00 %
06.06.2021 00:48 15,4 C 14,4 C 13,9 C 94 % 1023,4 hPa 0,0 l/m 0 min 0 min 0 W/m 19,3 km/h (3 Bft) 100,00 %
06.06.2021 00:50 15,4 C 14,4 C 13,9 C 94 % 1023,4 hPa 0,0 l/m 0 min 0 min 0 W/m 9,7 km/h (2 Bft) 97,87 %
06.06.2021 00:52 15,4 C 14,4 C 13,9 C 94 % 1023,4 hPa 0,0 l/m 0 min 0 min 0 W/m 9,7 km/h (2 Bft) 100,00 %
06.06.2021 00:54 15,4 C 14,4 C 13,9 C 94 % 1023,4 hPa 0,0 l/m 0 min 0 min 0 W/m 9,7 km/h (2 Bft) 100,00 %
06.06.2021 00:56 15,4 C 14,4 C 13,9 C 94 % 1023,4 hPa 0,0 l/m 0 min 0 min 0 W/m 6,4 km/h (2 Bft) 100,00 %
06.06.2021 00:58 15,4 C 14,4 C 13,9 C 94 % 1023,5 hPa 0,0 l/m 0 min 0 min 0 W/m 12,9 km/h (3 Bft) 100,00 %
06.06.2021 01:00 15,3 C 14,4 C 13,9 C 94 % 1023,4 hPa 0,0 l/m 0 min 0 min 0 W/m 9,7 km/h (2 Bft) 100,00 %
06.06.2021 01:02 15,3 C 14,4 C 13,9 C 94 % 1023,5 hPa 0,0 l/m 0 min 0 min 0 W/m 9,7 km/h (2 Bft) 100,00 %
06.06.2021 01:04 15,3 C 14,4 C 13,9 C 94 % 1023,4 hPa 0,0 l/m 0 min 0 min 0 W/m 16,1 km/h (3 Bft) 100,00 %
06.06.2021 01:06 15,3 C 14,4 C 13,9 C 94 % 1023,4 hPa 0,0 l/m 0 min 0 min 0 W/m 12,9 km/h (3 Bft) 97,83 %
06.06.2021 01:08 15,2 C 14,4 C 13,9 C 94 % 1023,4 hPa 0,0 l/m 0 min 0 min 0 W/m 6,4 km/h (2 Bft) 100,00 %
06.06.2021 01:10 15,2 C 14,4 C 13,9 C 94 % 1023,4 hPa 0,0 l/m 0 min 0 min 0 W/m 12,9 km/h (3 Bft) 97,87 %
06.06.2021 01:12 15,1 C 14,4 C 13,9 C 94 % 1023,4 hPa 0,0 l/m 0 min 0 min 0 W/m 12,9 km/h (3 Bft) 100,00 %
06.06.2021 01:14 15,1 C 14,4 C 13,9 C 94 % 1023,4 hPa 0,0 l/m 0 min 0 min 0 W/m 9,7 km/h (2 Bft) 100,00 %
06.06.2021 01:16 15,1 C 14,4 C 13,9 C 94 % 1023,4 hPa 0,0 l/m 0 min 0 min 0 W/m 12,9 km/h (3 Bft) 100,00 %
06.06.2021 01:18 15,1 C 14,4 C 13,9 C 94 % 1023,4 hPa 0,0 l/m 0 min 0 min 0 W/m 12,9 km/h (3 Bft) 100,00 %
06.06.2021 01:20 15,1 C 14,4 C 13,9 C 94 % 1023,3 hPa 0,0 l/m 0 min 0 min 0 W/m 12,9 km/h (3 Bft) 100,00 %
06.06.2021 01:22 15,0 C 14,4 C 13,9 C 95 % 1023,3 hPa 0,0 l/m 0 min 0 min 0 W/m 9,7 km/h (2 Bft) 100,00 %
06.06.2021 01:24 15,0 C 14,4 C 13,9 C 95 % 1023,3 hPa 0,0 l/m 0 min 0 min 0 W/m 9,7 km/h (2 Bft) 97,87 %
06.06.2021 01:26 15,0 C 14,4 C 13,9 C 94 % 1023,3 hPa 0,0 l/m 0 min 0 min 0 W/m 12,9 km/h (3 Bft) 100,00 %
06.06.2021 01:28 15,0 C 14,4 C 13,9 C 94 % 1023,3 hPa 0,0 l/m 0 min 0 min 0 W/m 16,1 km/h (3 Bft) 100,00 %
06.06.2021 01:30 15,0 C 14,4 C 13,9 C 94 % 1023,3 hPa 0,0 l/m 0 min 0 min 0 W/m 12,9 km/h (3 Bft) 100,00 %
06.06.2021 01:32 15,0 C 14,4 C 13,4 C 94 % 1023,2 hPa 0,0 l/m 0 min 0 min 0 W/m 19,3 km/h (3 Bft) 100,00 %
06.06.2021 01:34 15,0 C 14,4 C 13,9 C 95 % 1023,3 hPa 0,0 l/m 0 min 0 min 0 W/m 9,7 km/h (2 Bft) 100,00 %
06.06.2021 01:36 15,0 C 14,4 C 13,9 C 95 % 1023,2 hPa 0,0 l/m 0 min 0 min 0 W/m 12,9 km/h (3 Bft) 97,87 %
06.06.2021 01:38 15,0 C 14,4 C 13,9 C 95 % 1023,2 hPa 0,0 l/m 0 min 0 min 0 W/m 12,9 km/h (3 Bft) 97,87 %
06.06.2021 01:40 15,0 C 14,4 C 13,9 C 95 % 1023,2 hPa 0,0 l/m 0 min 0 min 0 W/m 12,9 km/h (3 Bft) 100,00 %
06.06.2021 01:42 15,0 C 14,4 C 13,4 C 95 % 1023,3 hPa 0,0 l/m 0 min 0 min 0 W/m 9,7 km/h (2 Bft) 100,00 %
06.06.2021 01:44 15,0 C 14,4 C 13,9 C 95 % 1023,2 hPa 0,0 l/m 0 min 0 min 0 W/m 12,9 km/h (3 Bft) 100,00 %
06.06.2021 01:46 15,0 C 14,4 C 13,4 C 95 % 1023,3 hPa 0,0 l/m 0 min 0 min 0 W/m 6,4 km/h (2 Bft) 100,00 %
06.06.2021 01:48 14,9 C 14,4 C 13,4 C 95 % 1023,2 hPa 0,0 l/m 0 min 0 min 0 W/m 9,7 km/h (2 Bft) 100,00 %
06.06.2021 01:50 15,0 C 14,4 C 13,4 C 95 % 1023,2 hPa 0,0 l/m 0 min 0 min 0 W/m 6,4 km/h (2 Bft) 100,00 %
06.06.2021 01:52 14,9 C 14,4 C 13,4 C 95 % 1023,2 hPa 0,0 l/m 0 min 0 min 0 W/m 3,2 km/h (1 Bft) 100,00 %
06.06.2021 01:54 15,0 C 14,4 C 13,9 C 95 % 1023,2 hPa 0,0 l/m 0 min 0 min 0 W/m 3,2 km/h (1 Bft) 100,00 %
06.06.2021 01:56 15,0 C 14,4 C 13,4 C 95 % 1023,2 hPa 0,0 l/m 0 min 0 min 0 W/m 12,9 km/h (3 Bft) 100,00 %
06.06.2021 01:58 15,0 C 14,4 C 13,4 C 95 % 1023,1 hPa 0,0 l/m 0 min 0 min 0 W/m 12,9 km/h (3 Bft) 100,00 %
06.06.2021 02:00 15,0 C 14,4 C 13,4 C 95 % 1023,1 hPa 0,0 l/m 0 min 0 min 0 W/m 6,4 km/h (2 Bft) 97,87 %
06.06.2021 02:02 15,0 C 14,4 C 13,9 C 95 % 1023,2 hPa 0,0 l/m 0 min 0 min 0 W/m 9,7 km/h (2 Bft) 100,00 %
06.06.2021 02:04 15,0 C 14,4 C 13,9 C 95 % 1023,2 hPa 0,0 l/m 0 min 0 min 0 W/m 3,2 km/h (1 Bft) 97,83 %
06.06.2021 02:06 15,0 C 14,4 C 13,4 C 95 % 1023,2 hPa 0,0 l/m 0 min 0 min 0 W/m 9,7 km/h (2 Bft) 97,87 %
06.06.2021 02:08 15,0 C 14,4 C 13,9 C 95 % 1023,2 hPa 0,0 l/m 0 min 0 min 0 W/m 9,7 km/h (2 Bft) 97,87 %
06.06.2021 02:10 14,9 C 14,4 C 13,9 C 95 % 1023,2 hPa 0,0 l/m 0 min 0 min 0 W/m 12,9 km/h (3 Bft) 95,74 %
06.06.2021 02:12 14,9 C 14,4 C 13,4 C 95 % 1023,2 hPa 0,0 l/m 0 min 0 min 0 W/m 16,1 km/h (3 Bft) 97,87 %
06.06.2021 02:14 14,9 C 14,4 C 13,4 C 95 % 1023,2 hPa 0,0 l/m 0 min 0 min 0 W/m 6,4 km/h (2 Bft) 97,87 %
06.06.2021 02:16 14,9 C 14,4 C 13,4 C 95 % 1023,2 hPa 0,0 l/m 0 min 0 min 0 W/m 6,4 km/h (2 Bft) 93,48 %
06.06.2021 02:18 14,9 C 14,4 C 13,9 C 95 % 1023,2 hPa 0,0 l/m 0 min 0 min 0 W/m 9,7 km/h (2 Bft) 97,87 %
06.06.2021 02:20 14,9 C 14,4 C 13,4 C 95 % 1023,2 hPa 0,0 l/m 0 min 0 min 0 W/m 12,9 km/h (3 Bft) 97,87 %
06.06.2021 02:22 14,9 C 14,4 C 13,4 C 95 % 1023,2 hPa 0,0 l/m 0 min 0 min 0 W/m 19,3 km/h (3 Bft) 97,87 %
06.06.2021 02:24 14,9 C 14,4 C 13,4 C 95 % 1023,2 hPa 0,0 l/m 0 min 0 min 0 W/m 9,7 km/h (2 Bft) 97,87 %
06.06.2021 02:26 14,9 C 14,4 C 13,4 C 95 % 1023,2 hPa 0,0 l/m 0 min 0 min 0 W/m 6,4 km/h (2 Bft) 91,49 %
06.06.2021 02:28 14,9 C 14,4 C 13,4 C 95 % 1023,2 hPa 0,0 l/m 0 min 0 min 0 W/m 6,4 km/h (2 Bft) 93,48 %
06.06.2021 02:30 14,9 C 14,4 C 13,4 C 95 % 1023,2 hPa 0,0 l/m 0 min 0 min 0 W/m 6,4 km/h (2 Bft) 97,87 %
06.06.2021 02:32 14,9 C 14,4 C 13,4 C 95 % 1023,2 hPa 0,0 l/m 0 min 0 min 0 W/m 6,4 km/h (2 Bft) 97,87 %
06.06.2021 02:34 14,9 C 14,4 C 13,4 C 95 % 1023,3 hPa 0,0 l/m 0 min 0 min 0 W/m 12,9 km/h (3 Bft) 95,74 %
06.06.2021 02:36 14,9 C 14,4 C 13,4 C 95 % 1023,3 hPa 0,0 l/m 0 min 0 min 0 W/m 9,7 km/h (2 Bft) 95,74 %
06.06.2021 02:38 14,9 C 14,4 C 13,9 C 95 % 1023,2 hPa 0,0 l/m 0 min 0 min 0 W/m 6,4 km/h (2 Bft) 95,74 %
06.06.2021 02:40 14,9 C 14,4 C 13,9 C 95 % 1023,2 hPa 0,0 l/m 0 min 0 min 0 W/m 12,9 km/h (3 Bft) 95,65 %
06.06.2021 02:42 14,9 C 14,4 C 13,4 C 95 % 1023,3 hPa 0,0 l/m 0 min 0 min 0 W/m 9,7 km/h (2 Bft) 95,74 %
06.06.2021 02:44 14,9 C 14,4 C 13,4 C 95 % 1023,3 hPa 0,0 l/m 0 min 0 min 0 W/m 6,4 km/h (2 Bft) 95,74 %
06.06.2021 02:46 14,9 C 14,4 C 13,4 C 95 % 1023,3 hPa 0,0 l/m 0 min 0 min 0 W/m 9,7 km/h (2 Bft) 93,62 %
06.06.2021 02:48 14,9 C 14,4 C 13,4 C 95 % 1023,3 hPa 0,0 l/m 0 min 0 min 0 W/m 6,4 km/h (2 Bft) 94,44 %
06.06.2021 02:50 14,9 C 14,4 C 13,4 C 95 % 1023,3 hPa 0,0 l/m 0 min 0 min 0 W/m 6,4 km/h (2 Bft) 93,62 %
06.06.2021 02:52 14,9 C 14,4 C 13,4 C 95 % 1023,3 hPa 0,0 l/m 0 min 0 min 0 W/m 9,7 km/h (2 Bft) 95,74 %
06.06.2021 02:54 14,9 C 14,4 C 13,4 C 95 % 1023,3 hPa 0,0 l/m 0 min 0 min 0 W/m 9,7 km/h (2 Bft) 97,87 %
06.06.2021 02:56 14,9 C 14,4 C 13,4 C 95 % 1023,3 hPa 0,0 l/m 0 min 0 min 0 W/m 16,1 km/h (3 Bft) 97,83 %
06.06.2021 02:58 14,8 C 13,9 C 13,4 C 95 % 1023,3 hPa 0,0 l/m 0 min 0 min 0 W/m 6,4 km/h (2 Bft) 97,87 %
06.06.2021 03:00 14,9 C 13,9 C 13,4 C 95 % 1023,3 hPa 0,0 l/m 0 min 0 min 0 W/m 6,4 km/h (2 Bft) 95,74 %
06.06.2021 03:02 14,8 C 13,9 C 13,4 C 95 % 1023,3 hPa 0,0 l/m 0 min 0 min 0 W/m 6,4 km/h (2 Bft) 97,87 %
06.06.2021 03:04 14,8 C 13,9 C 13,4 C 95 % 1023,3 hPa 0,0 l/m 0 min 0 min 0 W/m 3,2 km/h (1 Bft) 95,74 %
06.06.2021 03:06 14,8 C 13,9 C 13,4 C 96 % 1023,4 hPa 0,0 l/m 0 min 0 min 0 W/m 3,2 km/h (1 Bft) 95,65 %
06.06.2021 03:08 14,8 C 13,9 C 13,4 C 96 % 1023,3 hPa 0,0 l/m 0 min 0 min 0 W/m 6,4 km/h (2 Bft) 95,74 %
06.06.2021 03:10 14,8 C 13,9 C 13,4 C 96 % 1023,3 hPa 0,0 l/m 0 min 0 min 0 W/m 6,4 km/h (2 Bft) 97,87 %
06.06.2021 03:12 14,8 C 13,9 C 13,4 C 96 % 1023,3 hPa 0,0 l/m 0 min 0 min 0 W/m 6,4 km/h (2 Bft) 97,87 %
06.06.2021 03:14 14,8 C 13,9 C 13,4 C 96 % 1023,3 hPa 0,0 l/m 0 min 0 min 0 W/m 3,2 km/h (1 Bft) 97,87 %
06.06.2021 03:16 14,8 C 14,4 C 13,4 C 96 % 1023,4 hPa 0,0 l/m 0 min 0 min 0 W/m 6,4 km/h (2 Bft) 97,87 %
06.06.2021 03:18 14,8 C 13,9 C 13,4 C 96 % 1023,3 hPa 0,0 l/m 0 min 0 min 0 W/m 6,4 km/h (2 Bft) 97,83 %
06.06.2021 03:20 14,8 C 13,9 C 13,4 C 96 % 1023,3 hPa 0,0 l/m 0 min 0 min 0 W/m 6,4 km/h (2 Bft) 97,87 %
06.06.2021 03:22 14,8 C 13,9 C 13,4 C 96 % 1023,3 hPa 0,0 l/m 0 min 0 min 0 W/m 6,4 km/h (2 Bft) 97,87 %
06.06.2021 03:24 14,8 C 13,9 C 13,4 C 96 % 1023,3 hPa 0,0 l/m 0 min 0 min 0 W/m 3,2 km/h (1 Bft) 97,87 %
06.06.2021 03:26 14,8 C 13,9 C 13,4 C 96 % 1023,3 hPa 0,0 l/m 0 min 0 min 0 W/m 9,7 km/h (2 Bft) 97,87 %
06.06.2021 03:28 14,8 C 13,9 C 13,4 C 96 % 1023,4 hPa 0,0 l/m 0 min 0 min 0 W/m 6,4 km/h (2 Bft) 100,00 %
06.06.2021 03:30 14,7 C 13,9 C 13,4 C 96 % 1023,3 hPa 0,0 l/m 0 min 0 min 0 W/m 6,4 km/h (2 Bft) 100,00 %
06.06.2021 03:32 14,7 C 13,9 C 13,4 C 96 % 1023,2 hPa 0,0 l/m 0 min 0 min 0 W/m 9,7 km/h (2 Bft) 100,00 %
06.06.2021 03:34 14,7 C 13,9 C 13,4 C 96 % 1023,2 hPa 0,0 l/m 0 min 0 min 0 W/m 6,4 km/h (2 Bft) 100,00 %
06.06.2021 03:36 14,7 C 13,9 C 13,4 C 96 % 1023,2 hPa 0,0 l/m 0 min 0 min 0 W/m 12,9 km/h (3 Bft) 100,00 %
06.06.2021 03:38 14,7 C 13,9 C 13,4 C 96 % 1023,2 hPa 0,0 l/m 0 min 0 min 0 W/m 3,2 km/h (1 Bft) 100,00 %
06.06.2021 03:40 14,7 C 13,9 C 13,4 C 96 % 1023,2 hPa 0,0 l/m 0 min 0 min 0 W/m 6,4 km/h (2 Bft) 100,00 %
06.06.2021 03:42 14,7 C 13,9 C 13,4 C 96 % 1023,3 hPa 0,0 l/m 0 min 0 min 0 W/m 6,4 km/h (2 Bft) 97,87 %
06.06.2021 03:44 14,7 C 13,9 C 13,4 C 96 % 1023,2 hPa 0,0 l/m 0 min 0 min 0 W/m 6,4 km/h (2 Bft) 100,00 %
06.06.2021 03:46 14,7 C 13,9 C 13,4 C 96 % 1023,3 hPa 0,0 l/m 0 min 0 min 0 W/m 6,4 km/h (2 Bft) 100,00 %
06.06.2021 03:48 14,6 C 13,9 C 13,4 C 96 % 1023,3 hPa 0,0 l/m 0 min 0 min 0 W/m 6,4 km/h (2 Bft) 100,00 %
06.06.2021 03:50 14,6 C 13,9 C 13,4 C 96 % 1023,2 hPa 0,0 l/m 0 min 0 min 0 W/m 6,4 km/h (2 Bft) 100,00 %
06.06.2021 03:52 14,6 C 13,9 C 13,4 C 96 % 1023,3 hPa 0,0 l/m 0 min 0 min 0 W/m 9,7 km/h (2 Bft) 100,00 %
06.06.2021 03:54 14,6 C 13,9 C 13,4 C 96 % 1023,3 hPa 0,0 l/m 0 min 0 min 0 W/m 3,2 km/h (1 Bft) 100,00 %
06.06.2021 03:56 14,6 C 13,9 C 13,4 C 96 % 1023,3 hPa 0,0 l/m 0 min 0 min 0 W/m 6,4 km/h (2 Bft) 98,11 %
06.06.2021 03:58 14,5 C 13,9 C 13,4 C 96 % 1023,2 hPa 0,0 l/m 0 min 0 min 0 W/m 9,7 km/h (2 Bft) 97,87 %
06.06.2021 04:00 14,5 C 13,9 C 13,4 C 96 % 1023,3 hPa 0,0 l/m 0 min 0 min 0 W/m 6,4 km/h (2 Bft) 97,87 %
06.06.2021 04:02 14,5 C 13,9 C 13,4 C 96 % 1023,3 hPa 0,0 l/m 0 min 0 min 0 W/m 6,4 km/h (2 Bft) 100,00 %
06.06.2021 04:07 14,5 C 13,9 C 13,4 C 96 % 1023,2 hPa 0,0 l/m 0 min 0 min 0 W/m 9,7 km/h (2 Bft) 97,92 %
06.06.2021 04:08 14,5 C 13,9 C 13,4 C 96 % 1023,2 hPa 0,0 l/m 0 min 0 min 0 W/m 6,4 km/h (2 Bft) 100,00 %
06.06.2021 04:10 14,5 C 13,9 C 13,4 C 96 % 1023,3 hPa 0,0 l/m 0 min 0 min 0 W/m 9,7 km/h (2 Bft) 95,74 %
06.06.2021 04:12 14,5 C 13,9 C 13,4 C 96 % 1023,2 hPa 0,0 l/m 0 min 0 min 0 W/m 6,4 km/h (2 Bft) 97,87 %
06.06.2021 04:14 14,5 C 13,9 C 13,4 C 96 % 1023,2 hPa 0,0 l/m 0 min 0 min 0 W/m 6,4 km/h (2 Bft) 97,87 %
06.06.2021 04:16 14,5 C 13,9 C 13,4 C 96 % 1023,3 hPa 0,0 l/m 0 min 0 min 0 W/m 9,7 km/h (2 Bft) 95,65 %
06.06.2021 04:18 14,5 C 13,9 C 13,4 C 96 % 1023,3 hPa 0,0 l/m 0 min 0 min 0 W/m 6,4 km/h (2 Bft) 95,74 %
06.06.2021 04:20 14,5 C 13,9 C 13,4 C 96 % 1023,3 hPa 0,0 l/m 0 min 0 min 0 W/m 6,4 km/h (2 Bft) 97,87 %
06.06.2021 04:22 14,5 C 13,9 C 13,4 C 96 % 1023,3 hPa 0,0 l/m 0 min 0 min 0 W/m 3,2 km/h (1 Bft) 97,87 %
06.06.2021 04:24 14,5 C 13,9 C 13,4 C 96 % 1023,3 hPa 0,0 l/m 0 min 0 min 0 W/m 6,4 km/h (2 Bft) 97,87 %
06.06.2021 04:26 14,5 C 13,9 C 13,4 C 96 % 1023,3 hPa 0,0 l/m 0 min 0 min 0 W/m 6,4 km/h (2 Bft) 97,83 %
06.06.2021 04:28 14,5 C 13,9 C 13,4 C 96 % 1023,3 hPa 0,0 l/m 0 min 0 min 0 W/m 6,4 km/h (2 Bft) 97,87 %
06.06.2021 04:30 14,4 C 13,9 C 12,8 C 96 % 1023,3 hPa 0,0 l/m 0 min 0 min 0 W/m 3,2 km/h (1 Bft) 97,87 %
06.06.2021 04:32 14,4 C 13,9 C 12,8 C 96 % 1023,2 hPa 0,0 l/m 0 min 0 min 0 W/m 6,4 km/h (2 Bft) 97,92 %
06.06.2021 04:34 14,4 C 13,9 C 12,8 C 96 % 1023,2 hPa 0,0 l/m 0 min 0 min 0 W/m 12,9 km/h (3 Bft) 97,87 %
06.06.2021 04:36 14,4 C 13,9 C 12,8 C 96 % 1023,3 hPa 0,0 l/m 0 min 0 min 0 W/m 6,4 km/h (2 Bft) 97,87 %
06.06.2021 04:38 14,4 C 13,3 C 12,8 C 97 % 1023,3 hPa 0,0 l/m 0 min 0 min 0 W/m 9,7 km/h (2 Bft) 95,65 %
06.06.2021 04:40 14,4 C 13,3 C 12,8 C 97 % 1023,3 hPa 0,0 l/m 0 min 0 min 0 W/m 6,4 km/h (2 Bft) 97,87 %
06.06.2021 04:42 14,3 C 13,3 C 12,8 C 97 % 1023,3 hPa 0,0 l/m 0 min 0 min 0 W/m 9,7 km/h (2 Bft) 97,87 %
06.06.2021 04:44 14,3 C 13,3 C 12,8 C 97 % 1023,3 hPa 0,0 l/m 0 min 0 min 0 W/m 9,7 km/h (2 Bft) 97,87 %
06.06.2021 04:46 14,2 C 13,3 C 12,8 C 97 % 1023,3 hPa 0,0 l/m 0 min 0 min 0 W/m 9,7 km/h (2 Bft) 97,87 %
06.06.2021 04:48 14,2 C 13,3 C 12,8 C 97 % 1023,3 hPa 0,0 l/m 0 min 0 min 0 W/m 6,4 km/h (2 Bft) 97,87 %
06.06.2021 04:50 14,2 C 13,9 C 12,8 C 97 % 1023,3 hPa 0,0 l/m 0 min 0 min 0 W/m 9,7 km/h (2 Bft) 97,83 %
06.06.2021 04:52 14,2 C 13,3 C 12,8 C 97 % 1023,3 hPa 0,0 l/m 0 min 0 min 0 W/m 6,4 km/h (2 Bft) 100,00 %
06.06.2021 04:54 14,2 C 13,3 C 12,8 C 97 % 1023,3 hPa 0,0 l/m 0 min 0 min 0 W/m 3,2 km/h (1 Bft) 100,00 %
06.06.2021 04:56 14,2 C 13,3 C 12,8 C 97 % 1023,3 hPa 0,0 l/m 0 min 0 min 0 W/m 6,4 km/h (2 Bft) 97,87 %
06.06.2021 04:58 14,3 C 13,3 C 12,8 C 97 % 1023,3 hPa 0,0 l/m 0 min 0 min 0 W/m 12,9 km/h (3 Bft) 95,74 %
06.06.2021 05:00 14,2 C 13,3 C 12,8 C 97 % 1023,3 hPa 0,0 l/m 0 min 0 min 0 W/m 6,4 km/h (2 Bft) 95,74 %
06.06.2021 05:02 14,2 C 13,3 C 12,8 C 97 % 1023,3 hPa 0,0 l/m 0 min 0 min 0 W/m 3,2 km/h (1 Bft) 95,65 %
06.06.2021 05:04 14,2 C 13,3 C 12,8 C 97 % 1023,3 hPa 0,0 l/m 0 min 0 min 0 W/m 6,4 km/h (2 Bft) 93,62 %
06.06.2021 05:06 14,2 C 13,3 C 12,8 C 97 % 1023,2 hPa 0,0 l/m 0 min 0 min 0 W/m 3,2 km/h (1 Bft) 91,49 %
06.06.2021 05:08 14,2 C 13,3 C 12,8 C 97 % 1023,2 hPa 0,0 l/m 0 min 0 min 0 W/m 3,2 km/h (1 Bft) 95,74 %
06.06.2021 05:10 14,2 C 13,3 C 12,8 C 97 % 1023,2 hPa 0,0 l/m 0 min 0 min 0 W/m 6,4 km/h (2 Bft) 95,74 %
06.06.2021 05:12 14,2 C 13,3 C 12,8 C 97 % 1023,2 hPa 0,0 l/m 0 min 0 min 0 W/m 6,4 km/h (2 Bft) 93,62 %
06.06.2021 05:14 14,2 C 13,3 C 12,8 C 97 % 1023,2 hPa 0,0 l/m 0 min 0 min 0 W/m 6,4 km/h (2 Bft) 93,48 %
06.06.2021 05:16 14,2 C 13,3 C 12,8 C 97 % 1023,2 hPa 0,0 l/m 0 min 0 min 0 W/m 6,4 km/h (2 Bft) 95,74 %
06.06.2021 05:18 14,2 C 13,3 C 12,8 C 98 % 1023,1 hPa 0,0 l/m 0 min 0 min 0 W/m 6,4 km/h (2 Bft) 95,74 %
06.06.2021 05:20 14,2 C 13,3 C 12,8 C 98 % 1023,2 hPa 0,0 l/m 0 min 0 min 0 W/m 6,4 km/h (2 Bft) 93,62 %
06.06.2021 05:22 14,2 C 13,3 C 12,8 C 98 % 1023,2 hPa 0,0 l/m 0 min 0 min 0 W/m 6,4 km/h (2 Bft) 91,49 %
06.06.2021 05:24 14,2 C 13,3 C 12,8 C 98 % 1023,1 hPa 0,0 l/m 0 min 0 min 0 W/m 9,7 km/h (2 Bft) 95,74 %
06.06.2021 05:26 14,2 C 13,3 C 12,8 C 98 % 1023,2 hPa 0,0 l/m 0 min 0 min 0 W/m 9,7 km/h (2 Bft) 95,65 %
06.06.2021 05:28 14,2 C 13,3 C 12,8 C 98 % 1023,2 hPa 0,0 l/m 0 min 0 min 0 W/m 6,4 km/h (2 Bft) 95,74 %
06.06.2021 05:30 14,2 C 13,3 C 12,8 C 98 % 1023,1 hPa 0,0 l/m 0 min 0 min 0 W/m 6,4 km/h (2 Bft) 93,62 %
06.06.2021 05:32 14,2 C 13,3 C 12,8 C 98 % 1023,1 hPa 0,0 l/m 0 min 0 min 0 W/m 6,4 km/h (2 Bft) 95,74 %
06.06.2021 05:34 14,2 C 13,3 C 12,8 C 98 % 1023,1 hPa 0,0 l/m 0 min 0 min 0 W/m 12,9 km/h (3 Bft) 93,62 %
06.06.2021 05:36 14,2 C 13,3 C 12,8 C 98 % 1023,2 hPa 0,0 l/m 0 min 0 min 0 W/m 9,7 km/h (2 Bft) 93,62 %
06.06.2021 05:38 14,2 C 13,3 C 12,8 C 98 % 1023,2 hPa 0,0 l/m 0 min 0 min 0 W/m 6,4 km/h (2 Bft) 93,48 %
06.06.2021 05:40 14,2 C 13,3 C 12,8 C 98 % 1023,2 hPa 0,0 l/m 0 min 0 min 0 W/m 9,7 km/h (2 Bft) 91,49 %
06.06.2021 05:42 14,1 C 13,3 C 12,8 C 98 % 1023,2 hPa 0,0 l/m 0 min 0 min 0 W/m 3,2 km/h (1 Bft) 93,62 %
06.06.2021 05:44 14,1 C 13,3 C 13,4 C 98 % 1023,2 hPa 0,0 l/m 0 min 0 min 0 W/m 9,7 km/h (2 Bft) 91,49 %
06.06.2021 05:46 14,1 C 13,3 C 13,4 C 98 % 1023,1 hPa 0,0 l/m 0 min 0 min 0 W/m 6,4 km/h (2 Bft) 93,62 %
06.06.2021 05:48 14,1 C 13,3 C 13,4 C 98 % 1023,1 hPa 0,0 l/m 0 min 0 min 0 W/m 6,4 km/h (2 Bft) 97,83 %
06.06.2021 05:50 14,1 C 13,3 C 13,4 C 98 % 1023,1 hPa 0,0 l/m 0 min 0 min 0 W/m 6,4 km/h (2 Bft) 97,87 %
06.06.2021 05:52 14,1 C 13,3 C 12,8 C 98 % 1023,1 hPa 0,0 l/m 0 min 0 min 0 W/m 9,7 km/h (2 Bft) 95,74 %
06.06.2021 05:54 14,1 C 13,3 C 13,4 C 98 % 1023,1 hPa 0,0 l/m 0 min 0 min 0 W/m 6,4 km/h (2 Bft) 95,74 %
06.06.2021 05:56 14,1 C 13,3 C 13,4 C 98 % 1023,1 hPa 0,0 l/m 0 min 0 min 0 W/m 9,7 km/h (2 Bft) 97,87 %
06.06.2021 05:58 14,1 C 13,3 C 13,4 C 98 % 1023,1 hPa 0,0 l/m 0 min 0 min 0 W/m 12,9 km/h (3 Bft) 97,87 %
06.06.2021 06:00 14,1 C 13,3 C 13,4 C 98 % 1023,1 hPa 0,0 l/m 0 min 0 min 0 W/m 6,4 km/h (2 Bft) 97,83 %
06.06.2021 06:02 14,1 C 13,3 C 13,4 C 98 % 1023,1 hPa 0,0 l/m 0 min 0 min 0 W/m 9,7 km/h (2 Bft) 97,87 %
06.06.2021 06:04 14,1 C 13,3 C 13,4 C 98 % 1023,1 hPa 0,0 l/m 0 min 0 min 0 W/m 3,2 km/h (1 Bft) 95,74 %
06.06.2021 06:08 14,1 C 13,3 C 13,4 C 98 % 1023,2 hPa 0,0 l/m 0 min 0 min 0 W/m 12,9 km/h (3 Bft) 97,87 %
06.06.2021 06:10 14,1 C 13,3 C 13,4 C 98 % 1023,2 hPa 0,0 l/m 0 min 0 min 5 W/m 9,7 km/h (2 Bft) 97,87 %
06.06.2021 06:12 14,1 C 13,3 C 13,4 C 98 % 1023,2 hPa 0,0 l/m 0 min 0 min 5 W/m 3,2 km/h (1 Bft) 97,83 %
06.06.2021 06:14 14,1 C 13,3 C 13,4 C 98 % 1023,1 hPa 0,0 l/m 0 min 0 min 5 W/m 12,9 km/h (3 Bft) 93,62 %
06.06.2021 06:16 14,1 C 13,3 C 13,4 C 98 % 1023,1 hPa 0,0 l/m 0 min 0 min 5 W/m 3,2 km/h (1 Bft) 97,87 %
06.06.2021 06:18 14,1 C 13,3 C 13,4 C 98 % 1023,1 hPa 0,0 l/m 0 min 0 min 5 W/m 6,4 km/h (2 Bft) 97,87 %
06.06.2021 06:20 14,1 C 13,3 C 13,4 C 98 % 1023,1 hPa 0,0 l/m 0 min 0 min 5 W/m 9,7 km/h (2 Bft) 97,87 %
06.06.2021 06:22 14,1 C 13,3 C 13,4 C 98 % 1023,1 hPa 0,0 l/m 0 min 0 min 5 W/m 9,7 km/h (2 Bft) 100,00 %
06.06.2021 06:24 14,1 C 13,3 C 13,4 C 98 % 1023,2 hPa 0,0 l/m 0 min 0 min 5 W/m 3,2 km/h (1 Bft) 97,83 %
06.06.2021 06:26 14,1 C 13,3 C 13,4 C 98 % 1023,1 hPa 0,0 l/m 0 min 0 min 5 W/m 6,4 km/h (2 Bft) 100,00 %
06.06.2021 06:28 14,1 C 13,3 C 13,4 C 98 % 1023,2 hPa 0,0 l/m 0 min 0 min 5 W/m 9,7 km/h (2 Bft) 100,00 %
06.06.2021 06:30 14,1 C 13,3 C 13,4 C 98 % 1023,2 hPa 0,0 l/m 0 min 0 min 5 W/m 6,4 km/h (2 Bft) 100,00 %
06.06.2021 06:32 14,1 C 13,3 C 13,4 C 98 % 1023,1 hPa 0,0 l/m 0 min 0 min 5 W/m 6,4 km/h (2 Bft) 100,00 %
06.06.2021 06:34 14,1 C 13,3 C 13,4 C 98 % 1023,2 hPa 0,0 l/m 0 min 0 min 5 W/m 6,4 km/h (2 Bft) 97,87 %
06.06.2021 06:36 14,1 C 13,3 C 13,4 C 98 % 1023,2 hPa 0,0 l/m 0 min 0 min 3 W/m 6,4 km/h (2 Bft) 97,83 %
06.06.2021 06:38 14,1 C 13,3 C 13,4 C 98 % 1023,2 hPa 0,0 l/m 0 min 0 min 5 W/m 6,4 km/h (2 Bft) 100,00 %
06.06.2021 06:40 14,1 C 13,3 C 13,4 C 98 % 1023,2 hPa 0,0 l/m 0 min 0 min 5 W/m 6,4 km/h (2 Bft) 97,87 %
06.06.2021 06:42 14,1 C 13,3 C 13,4 C 98 % 1023,2 hPa 0,0 l/m 0 min 0 min 5 W/m 6,4 km/h (2 Bft) 100,00 %
06.06.2021 06:44 14,1 C 13,3 C 13,4 C 98 % 1023,2 hPa 0,0 l/m 0 min 0 min 5 W/m 6,4 km/h (2 Bft) 100,00 %
06.06.2021 06:46 14,1 C 13,3 C 13,4 C 98 % 1023,2 hPa 0,0 l/m 0 min 0 min 5 W/m 6,4 km/h (2 Bft) 97,87 %
06.06.2021 06:48 14,1 C 13,3 C 13,4 C 98 % 1023,2 hPa 0,0 l/m 0 min 0 min 5 W/m 6,4 km/h (2 Bft) 100,00 %
06.06.2021 06:50 14,1 C 13,3 C 13,4 C 98 % 1023,3 hPa 0,0 l/m 0 min 0 min 5 W/m 12,9 km/h (3 Bft) 100,00 %
06.06.2021 06:52 14,1 C 13,3 C 13,4 C 98 % 1023,2 hPa 0,0 l/m 0 min 0 min 5 W/m 9,7 km/h (2 Bft) 100,00 %
06.06.2021 06:54 14,1 C 13,3 C 13,4 C 98 % 1023,3 hPa 0,0 l/m 0 min 0 min 5 W/m 9,7 km/h (2 Bft) 100,00 %
06.06.2021 06:56 14,1 C 13,3 C 13,4 C 98 % 1023,3 hPa 0,0 l/m 0 min 0 min 5 W/m 6,4 km/h (2 Bft) 100,00 %
06.06.2021 06:58 14,0 C 13,3 C 13,4 C 98 % 1023,3 hPa 0,0 l/m 0 min 0 min 5 W/m 6,4 km/h (2 Bft) 100,00 %
06.06.2021 07:00 14,1 C 13,3 C 13,4 C 98 % 1023,3 hPa 0,0 l/m 0 min 0 min 7 W/m 6,4 km/h (2 Bft) 100,00 %
06.06.2021 07:02 14,0 C 13,3 C 13,4 C 98 % 1023,4 hPa 0,0 l/m 0 min 0 min 10 W/m 9,7 km/h (2 Bft) 97,87 %
06.06.2021 07:04 14,1 C 13,3 C 13,4 C 98 % 1023,4 hPa 0,0 l/m 0 min 0 min 15 W/m 9,7 km/h (2 Bft) 100,00 %
06.06.2021 07:06 14,1 C 13,3 C 13,4 C 98 % 1023,3 hPa 0,0 l/m 0 min 0 min 21 W/m 6,4 km/h (2 Bft) 97,87 %
06.06.2021 07:08 14,0 C 13,3 C 13,4 C 98 % 1023,3 hPa 0,0 l/m 0 min 0 min 20 W/m 9,7 km/h (2 Bft) 100,00 %
06.06.2021 07:10 14,0 C 13,3 C 13,4 C 98 % 1023,3 hPa 0,0 l/m 0 min 0 min 22 W/m 9,7 km/h (2 Bft) 100,00 %
06.06.2021 07:12 14,0 C 13,3 C 13,4 C 98 % 1023,3 hPa 0,0 l/m 0 min 0 min 27 W/m 6,4 km/h (2 Bft) 100,00 %
06.06.2021 07:14 14,1 C 13,3 C 13,4 C 98 % 1023,3 hPa 0,0 l/m 0 min 0 min 33 W/m 6,4 km/h (2 Bft) 97,87 %
06.06.2021 07:16 14,1 C 13,9 C 13,4 C 98 % 1023,3 hPa 0,0 l/m 0 min 0 min 35 W/m 6,4 km/h (2 Bft) 100,00 %
06.06.2021 07:18 14,1 C 13,9 C 13,4 C 98 % 1023,3 hPa 0,0 l/m 0 min 0 min 34 W/m 6,4 km/h (2 Bft) 97,87 %
06.06.2021 07:20 14,1 C 13,9 C 13,4 C 98 % 1023,3 hPa 0,0 l/m 0 min 0 min 28 W/m 6,4 km/h (2 Bft) 100,00 %
06.06.2021 07:22 14,2 C 13,9 C 13,4 C 98 % 1023,3 hPa 0,0 l/m 0 min 0 min 21 W/m 12,9 km/h (3 Bft) 100,00 %
06.06.2021 07:24 14,2 C 13,9 C 13,4 C 98 % 1023,3 hPa 0,0 l/m 0 min 0 min 18 W/m 6,4 km/h (2 Bft) 100,00 %
06.06.2021 07:26 14,2 C 13,9 C 13,4 C 98 % 1023,3 hPa 0,0 l/m 0 min 0 min 20 W/m 6,4 km/h (2 Bft) 97,87 %
06.06.2021 07:28 14,2 C 13,9 C 13,4 C 98 % 1023,2 hPa 0,0 l/m 0 min 0 min 30 W/m 9,7 km/h (2 Bft) 100,00 %
06.06.2021 07:30 14,2 C 13,9 C 13,4 C 98 % 1023,3 hPa 0,0 l/m 0 min 0 min 36 W/m 9,7 km/h (2 Bft) 100,00 %
06.06.2021 07:32 14,2 C 13,9 C 13,4 C 98 % 1023,3 hPa 0,0 l/m 0 min 0 min 36 W/m 6,4 km/h (2 Bft) 100,00 %
06.06.2021 07:34 14,2 C 13,9 C 13,4 C 98 % 1023,3 hPa 0,0 l/m 0 min 0 min 30 W/m 9,7 km/h (2 Bft) 97,87 %
06.06.2021 07:36 14,2 C 13,9 C 13,4 C 98 % 1023,3 hPa 0,0 l/m 0 min 0 min 28 W/m 6,4 km/h (2 Bft) 100,00 %
06.06.2021 07:38 14,2 C 13,9 C 13,4 C 98 % 1023,2 hPa 0,0 l/m 0 min 0 min 32 W/m 6,4 km/h (2 Bft) 100,00 %
06.06.2021 07:40 14,2 C 13,9 C 13,4 C 98 % 1023,2 hPa 0,0 l/m 0 min 0 min 33 W/m 16,1 km/h (3 Bft) 100,00 %
06.06.2021 07:42 14,2 C 13,9 C 13,4 C 98 % 1023,3 hPa 0,0 l/m 0 min 0 min 38 W/m 9,7 km/h (2 Bft) 97,87 %
06.06.2021 07:44 14,2 C 13,9 C 13,4 C 98 % 1023,3 hPa 0,0 l/m 0 min 0 min 46 W/m 12,9 km/h (3 Bft) 97,87 %
06.06.2021 07:46 14,2 C 13,9 C 13,4 C 98 % 1023,3 hPa 0,0 l/m 0 min 0 min 50 W/m 6,4 km/h (2 Bft) 100,00 %
06.06.2021 07:48 14,2 C 13,9 C 13,4 C 98 % 1023,4 hPa 0,0 l/m 0 min 0 min 42 W/m 12,9 km/h (3 Bft) 97,87 %
06.06.2021 07:50 14,2 C 13,9 C 13,4 C 98 % 1023,3 hPa 0,0 l/m 0 min 0 min 42 W/m 9,7 km/h (2 Bft) 100,00 %
06.06.2021 07:52 14,2 C 13,9 C 13,4 C 98 % 1023,3 hPa 0,0 l/m 0 min 0 min 48 W/m 9,7 km/h (2 Bft) 97,87 %
06.06.2021 07:54 14,2 C 13,9 C 13,4 C 98 % 1023,3 hPa 0,0 l/m 0 min 0 min 46 W/m 9,7 km/h (2 Bft) 68,09 %
06.06.2021 07:56 14,2 C 13,9 C 13,4 C 98 % 1023,3 hPa 0,0 l/m 0 min 0 min 42 W/m 6,4 km/h (2 Bft) 84,78 %
06.06.2021 07:58 14,2 C 13,9 C 13,4 C 98 % 1023,3 hPa 0,0 l/m 0 min 0 min 39 W/m 9,7 km/h (2 Bft) 97,87 %
06.06.2021 08:00 14,2 C 13,9 C 13,4 C 98 % 1023,4 hPa 0,0 l/m 0 min 0 min 35 W/m 9,7 km/h (2 Bft) 95,74 %
06.06.2021 08:02 14,2 C 13,9 C 13,4 C 98 % 1023,4 hPa 0,0 l/m 0 min 0 min 35 W/m 6,4 km/h (2 Bft) 93,48 %
06.06.2021 08:04 14,2 C 13,9 C 13,4 C 98 % 1023,4 hPa 0,0 l/m 0 min 0 min 39 W/m 9,7 km/h (2 Bft) 97,87 %
06.06.2021 08:06 14,2 C 13,9 C 13,4 C 98 % 1023,4 hPa 0,0 l/m 0 min 0 min 45 W/m 9,7 km/h (2 Bft) 97,87 %
06.06.2021 08:08 14,2 C 13,9 C 13,4 C 98 % 1023,4 hPa 0,0 l/m 0 min 0 min 46 W/m 9,7 km/h (2 Bft) 97,87 %
06.06.2021 08:10 14,2 C 13,9 C 13,4 C 98 % 1023,4 hPa 0,0 l/m 0 min 0 min 45 W/m 6,4 km/h (2 Bft) 97,87 %
06.06.2021 08:12 14,2 C 13,9 C 13,4 C 98 % 1023,4 hPa 0,0 l/m 0 min 0 min 45 W/m 6,4 km/h (2 Bft) 97,87 %
06.06.2021 08:14 14,2 C 13,9 C 13,4 C 98 % 1023,5 hPa 0,0 l/m 0 min 0 min 45 W/m 6,4 km/h (2 Bft) 97,83 %
06.06.2021 08:16 14,2 C 13,9 C 13,4 C 98 % 1023,5 hPa 0,0 l/m 0 min 0 min 50 W/m 6,4 km/h (2 Bft) 93,62 %
06.06.2021 08:18 14,2 C 13,9 C 13,4 C 98 % 1023,5 hPa 0,0 l/m 0 min 0 min 53 W/m 6,4 km/h (2 Bft) 97,87 %
06.06.2021 08:20 14,2 C 13,9 C 13,9 C 98 % 1023,5 hPa 0,0 l/m 0 min 0 min 48 W/m 6,4 km/h (2 Bft) 95,74 %
06.06.2021 08:22 14,2 C 13,9 C 13,9 C 98 % 1023,6 hPa 0,0 l/m 0 min 0 min 41 W/m 12,9 km/h (3 Bft) 97,87 %
06.06.2021 08:24 14,2 C 13,9 C 13,9 C 98 % 1023,6 hPa 0,0 l/m 0 min 0 min 39 W/m 6,4 km/h (2 Bft) 95,74 %
06.06.2021 08:26 14,2 C 13,9 C 13,9 C 98 % 1023,6 hPa 0,0 l/m 0 min 0 min 38 W/m 16,1 km/h (3 Bft) 95,65 %
06.06.2021 08:28 14,2 C 13,9 C 13,4 C 98 % 1023,6 hPa 0,0 l/m 0 min 0 min 37 W/m 9,7 km/h (2 Bft) 95,74 %
06.06.2021 08:30 14,2 C 13,9 C 13,4 C 98 % 1023,6 hPa 0,0 l/m 0 min 0 min 33 W/m 9,7 km/h (2 Bft) 95,74 %
06.06.2021 08:32 14,2 C 13,9 C 13,4 C 98 % 1023,6 hPa 0,0 l/m 0 min 0 min 39 W/m 6,4 km/h (2 Bft) 95,74 %
06.06.2021 08:34 14,2 C 13,9 C 13,4 C 97 % 1023,5 hPa 0,0 l/m 0 min 0 min 48 W/m 9,7 km/h (2 Bft) 95,74 %
06.06.2021 08:36 14,2 C 13,9 C 13,9 C 97 % 1023,6 hPa 0,0 l/m 0 min 0 min 54 W/m 9,7 km/h (2 Bft) 91,30 %
06.06.2021 08:38 14,2 C 13,9 C 13,9 C 97 % 1023,6 hPa 0,0 l/m 0 min 0 min 50 W/m 16,1 km/h (3 Bft) 93,62 %
06.06.2021 08:40 14,2 C 13,9 C 13,9 C 97 % 1023,6 hPa 0,0 l/m 0 min 0 min 56 W/m 16,1 km/h (3 Bft) 95,74 %
06.06.2021 08:42 14,2 C 13,9 C 13,9 C 97 % 1023,6 hPa 0,0 l/m 0 min 0 min 51 W/m 12,9 km/h (3 Bft) 93,62 %
06.06.2021 08:44 14,2 C 13,9 C 13,9 C 97 % 1023,6 hPa 0,0 l/m 0 min 0 min 53 W/m 9,7 km/h (2 Bft) 97,87 %
06.06.2021 08:46 14,2 C 13,9 C 13,9 C 97 % 1023,6 hPa 0,0 l/m 0 min 0 min 57 W/m 9,7 km/h (2 Bft) 97,87 %
06.06.2021 08:48 14,2 C 13,9 C 13,9 C 97 % 1023,6 hPa 0,0 l/m 0 min 0 min 69 W/m 9,7 km/h (2 Bft) 95,74 %
06.06.2021 08:50 14,2 C 14,4 C 13,9 C 97 % 1023,6 hPa 0,0 l/m 0 min 0 min 69 W/m 6,4 km/h (2 Bft) 97,83 %
06.06.2021 08:52 14,2 C 14,4 C 13,9 C 97 % 1023,5 hPa 0,0 l/m 0 min 0 min 68 W/m 12,9 km/h (3 Bft) 97,87 %
06.06.2021 08:54 14,3 C 14,4 C 13,9 C 97 % 1023,6 hPa 0,0 l/m 0 min 0 min 59 W/m 6,4 km/h (2 Bft) 97,87 %
06.06.2021 08:56 14,3 C 14,4 C 13,9 C 97 % 1023,6 hPa 0,0 l/m 0 min 0 min 58 W/m 9,7 km/h (2 Bft) 95,74 %
06.06.2021 08:58 14,4 C 14,4 C 13,9 C 97 % 1023,6 hPa 0,0 l/m 0 min 0 min 50 W/m 9,7 km/h (2 Bft) 97,87 %
06.06.2021 09:00 14,4 C 14,4 C 13,9 C 97 % 1023,6 hPa 0,0 l/m 0 min 0 min 41 W/m 12,9 km/h (3 Bft) 97,87 %
06.06.2021 09:02 14,4 C 13,9 C 13,9 C 97 % 1023,6 hPa 0,0 l/m 0 min 0 min 40 W/m 6,4 km/h (2 Bft) 97,83 %
06.06.2021 09:04 14,4 C 13,9 C 13,9 C 97 % 1023,6 hPa 0,0 l/m 0 min 0 min 43 W/m 9,7 km/h (2 Bft) 97,87 %
06.06.2021 09:06 14,4 C 13,9 C 13,9 C 97 % 1023,6 hPa 0,0 l/m 0 min 0 min 41 W/m 9,7 km/h (2 Bft) 97,87 %
06.06.2021 09:08 14,4 C 13,9 C 13,9 C 97 % 1023,6 hPa 0,0 l/m 0 min 0 min 40 W/m 19,3 km/h (3 Bft) 96,61 %
06.06.2021 09:10 14,4 C 13,9 C 13,9 C 97 % 1023,6 hPa 0,0 l/m 0 min 0 min 42 W/m 16,1 km/h (3 Bft) 97,14 %
06.06.2021 09:12 14,3 C 13,9 C 13,9 C 97 % 1023,7 hPa 0,0 l/m 0 min 0 min 41 W/m 6,4 km/h (2 Bft) 97,87 %
06.06.2021 09:14 14,3 C 13,9 C 13,9 C 97 % 1023,7 hPa 0,0 l/m 0 min 0 min 40 W/m 9,7 km/h (2 Bft) 97,83 %
06.06.2021 09:16 14,3 C 13,9 C 13,4 C 97 % 1023,8 hPa 0,0 l/m 0 min 0 min 40 W/m 12,9 km/h (3 Bft) 97,87 %
06.06.2021 09:18 14,3 C 13,9 C 13,4 C 97 % 1023,7 hPa 0,0 l/m 0 min 0 min 42 W/m 6,4 km/h (2 Bft) 97,87 %
06.06.2021 09:20 14,2 C 13,9 C 13,4 C 97 % 1023,7 hPa 0,0 l/m 0 min 0 min 45 W/m 9,7 km/h (2 Bft) 100,00 %
06.06.2021 09:22 14,2 C 13,9 C 13,4 C 97 % 1023,7 hPa 0,0 l/m 0 min 0 min 52 W/m 6,4 km/h (2 Bft) 100,00 %
06.06.2021 09:24 14,2 C 13,9 C 13,4 C 97 % 1023,7 hPa 0,0 l/m 0 min 0 min 57 W/m 9,7 km/h (2 Bft) 100,00 %
06.06.2021 09:26 14,2 C 13,9 C 13,4 C 97 % 1023,7 hPa 0,0 l/m 0 min 0 min 63 W/m 19,3 km/h (3 Bft) 100,00 %
06.06.2021 09:28 14,2 C 13,9 C 13,4 C 97 % 1023,7 hPa 0,0 l/m 0 min 0 min 66 W/m 6,4 km/h (2 Bft) 97,87 %
06.06.2021 09:30 14,2 C 13,9 C 13,4 C 97 % 1023,7 hPa 0,0 l/m 0 min 0 min 68 W/m 9,7 km/h (2 Bft) 100,00 %
06.06.2021 09:32 14,2 C 13,9 C 13,4 C 97 % 1023,8 hPa 0,0 l/m 0 min 0 min 66 W/m 16,1 km/h (3 Bft) 100,00 %
06.06.2021 09:34 14,2 C 13,9 C 13,4 C 97 % 1023,7 hPa 0,0 l/m 0 min 0 min 64 W/m 6,4 km/h (2 Bft) 100,00 %
06.06.2021 09:36 14,2 C 13,9 C 13,4 C 97 % 1023,8 hPa 0,0 l/m 0 min 0 min 71 W/m 6,4 km/h (2 Bft) 100,00 %
06.06.2021 09:38 14,2 C 13,9 C 13,4 C 97 % 1023,8 hPa 0,0 l/m 0 min 0 min 78 W/m 12,9 km/h (3 Bft) 100,00 %
06.06.2021 09:40 14,2 C 13,9 C 13,4 C 97 % 1023,8 hPa 0,0 l/m 0 min 0 min 78 W/m 9,7 km/h (2 Bft) 100,00 %
06.06.2021 09:42 14,2 C 13,9 C 13,4 C 97 % 1023,8 hPa 0,0 l/m 0 min 0 min 86 W/m 6,4 km/h (2 Bft) 100,00 %
06.06.2021 09:44 14,2 C 13,9 C 13,4 C 97 % 1023,8 hPa 0,0 l/m 0 min 0 min 91 W/m 6,4 km/h (2 Bft) 100,00 %
06.06.2021 09:46 14,2 C 13,9 C 13,4 C 97 % 1023,8 hPa 0,0 l/m 0 min 0 min 95 W/m 12,9 km/h (3 Bft) 100,00 %
06.06.2021 09:48 14,2 C 13,9 C 13,4 C 97 % 1023,8 hPa 0,0 l/m 0 min 0 min 96 W/m 12,9 km/h (3 Bft) 100,00 %
06.06.2021 09:50 14,2 C 13,9 C 13,4 C 97 % 1023,8 hPa 0,0 l/m 0 min 0 min 99 W/m 9,7 km/h (2 Bft) 100,00 %
06.06.2021 09:52 14,2 C 13,9 C 13,9 C 97 % 1023,8 hPa 0,0 l/m 0 min 0 min 108 W/m 9,7 km/h (2 Bft) 100,00 %
06.06.2021 09:54 14,2 C 13,9 C 13,9 C 97 % 1023,8 hPa 0,0 l/m 0 min 0 min 123 W/m 19,3 km/h (3 Bft) 100,00 %
06.06.2021 09:56 14,2 C 13,9 C 13,9 C 97 % 1023,8 hPa 0,0 l/m 0 min 0 min 110 W/m 12,9 km/h (3 Bft) 100,00 %
06.06.2021 09:58 14,2 C 14,4 C 13,9 C 97 % 1023,8 hPa 0,0 l/m 0 min 0 min 127 W/m 9,7 km/h (2 Bft) 100,00 %
06.06.2021 10:00 14,2 C 14,4 C 13,9 C 97 % 1023,8 hPa 0,0 l/m 0 min 0 min 146 W/m 12,9 km/h (3 Bft) 100,00 %
06.06.2021 10:02 14,2 C 14,4 C 13,9 C 97 % 1023,9 hPa 0,0 l/m 0 min 0 min 151 W/m 12,9 km/h (3 Bft) 95,74 %
06.06.2021 10:04 14,2 C 14,4 C 13,9 C 97 % 1023,8 hPa 0,0 l/m 0 min 0 min 151 W/m 12,9 km/h (3 Bft) 97,87 %
06.06.2021 10:06 14,3 C 14,4 C 13,9 C 97 % 1023,8 hPa 0,0 l/m 0 min 0 min 142 W/m 12,9 km/h (3 Bft) 100,00 %
06.06.2021 10:08 14,3 C 14,4 C 13,9 C 97 % 1023,8 hPa 0,0 l/m 0 min 0 min 123 W/m 12,9 km/h (3 Bft) 100,00 %
06.06.2021 10:10 14,4 C 14,4 C 13,9 C 97 % 1023,8 hPa 0,0 l/m 0 min 0 min 129 W/m 9,7 km/h (2 Bft) 100,00 %
06.06.2021 10:12 14,4 C 14,4 C 13,9 C 97 % 1023,8 hPa 0,0 l/m 0 min 0 min 135 W/m 6,4 km/h (2 Bft) 100,00 %
06.06.2021 10:14 14,4 C 14,4 C 13,9 C 97 % 1023,9 hPa 0,0 l/m 0 min 0 min 122 W/m 16,1 km/h (3 Bft) 97,87 %
06.06.2021 10:16 14,4 C 14,4 C 13,9 C 97 % 1023,9 hPa 0,0 l/m 0 min 0 min 129 W/m 9,7 km/h (2 Bft) 100,00 %
06.06.2021 10:18 14,4 C 14,4 C 13,9 C 97 % 1023,8 hPa 0,0 l/m 0 min 0 min 111 W/m 12,9 km/h (3 Bft) 100,00 %
06.06.2021 10:20 14,5 C 14,4 C 13,9 C 97 % 1023,8 hPa 0,0 l/m 0 min 0 min 100 W/m 9,7 km/h (2 Bft) 100,00 %
06.06.2021 10:22 14,5 C 14,4 C 13,9 C 97 % 1023,8 hPa 0,0 l/m 0 min 0 min 109 W/m 22,5 km/h (4 Bft) 100,00 %
06.06.2021 10:24 14,5 C 14,4 C 13,9 C 97 % 1023,7 hPa 0,0 l/m 0 min 0 min 110 W/m 12,9 km/h (3 Bft) 100,00 %
06.06.2021 10:26 14,5 C 14,4 C 13,9 C 97 % 1023,9 hPa 0,0 l/m 0 min 0 min 95 W/m 12,9 km/h (3 Bft) 100,00 %
06.06.2021 10:28 14,5 C 14,4 C 13,9 C 97 % 1023,8 hPa 0,0 l/m 0 min 0 min 99 W/m 16,1 km/h (3 Bft) 100,00 %
06.06.2021 10:30 14,5 C 14,4 C 13,9 C 96 % 1023,8 hPa 0,0 l/m 0 min 0 min 98 W/m 16,1 km/h (3 Bft) 100,00 %
06.06.2021 10:32 14,5 C 14,4 C 13,9 C 96 % 1023,8 hPa 0,0 l/m 0 min 0 min 98 W/m 6,4 km/h (2 Bft) 100,00 %
06.06.2021 10:34 14,5 C 14,4 C 13,9 C 96 % 1023,8 hPa 0,0 l/m 0 min 0 min 100 W/m 12,9 km/h (3 Bft) 97,87 %
06.06.2021 10:36 14,5 C 14,4 C 13,9 C 96 % 1023,9 hPa 0,0 l/m 0 min 0 min 108 W/m 6,4 km/h (2 Bft) 97,83 %
06.06.2021 10:38 14,5 C 14,4 C 13,9 C 96 % 1023,8 hPa 0,0 l/m 0 min 0 min 105 W/m 3,2 km/h (1 Bft) 97,87 %
06.06.2021 10:40 14,5 C 14,4 C 13,9 C 96 % 1023,8 hPa 0,0 l/m 0 min 0 min 121 W/m 9,7 km/h (2 Bft) 97,87 %
06.06.2021 10:42 14,5 C 14,4 C 13,9 C 96 % 1023,8 hPa 0,0 l/m 0 min 0 min 143 W/m 3,2 km/h (1 Bft) 95,74 %
06.06.2021 10:44 14,5 C 14,4 C 13,9 C 97 % 1023,8 hPa 0,0 l/m 0 min 0 min 141 W/m 9,7 km/h (2 Bft) 95,74 %
06.06.2021 10:46 14,6 C 14,4 C 13,9 C 97 % 1023,8 hPa 0,0 l/m 0 min 0 min 130 W/m 9,7 km/h (2 Bft) 95,74 %
06.06.2021 10:48 14,6 C 14,4 C 13,9 C 97 % 1023,8 hPa 0,0 l/m 0 min 0 min 129 W/m 6,4 km/h (2 Bft) 95,65 %
06.06.2021 10:50 14,6 C 14,4 C 13,9 C 97 % 1023,8 hPa 0,0 l/m 0 min 0 min 119 W/m 6,4 km/h (2 Bft) 95,74 %
06.06.2021 10:52 14,6 C 14,4 C 13,9 C 97 % 1023,8 hPa 0,0 l/m 0 min 0 min 122 W/m 9,7 km/h (2 Bft) 95,74 %
06.06.2021 10:54 14,6 C 14,4 C 14,5 C 97 % 1023,8 hPa 0,0 l/m 0 min 0 min 154 W/m 6,4 km/h (2 Bft) 95,74 %
06.06.2021 10:56 14,7 C 15,0 C 14,5 C 97 % 1023,8 hPa 0,0 l/m 0 min 0 min 155 W/m 12,9 km/h (3 Bft) 93,62 %
06.06.2021 10:58 14,7 C 14,4 C 14,5 C 97 % 1023,9 hPa 0,0 l/m 0 min 0 min 137 W/m 6,4 km/h (2 Bft) 95,74 %
06.06.2021 11:00 14,8 C 15,0 C 14,5 C 96 % 1023,9 hPa 0,0 l/m 0 min 0 min 137 W/m 9,7 km/h (2 Bft) 95,65 %
06.06.2021 11:02 14,8 C 15,0 C 14,5 C 96 % 1023,9 hPa 0,0 l/m 0 min 0 min 144 W/m 6,4 km/h (2 Bft) 96,00 %
06.06.2021 11:04 14,9 C 15,0 C 14,5 C 96 % 1023,9 hPa 0,0 l/m 0 min 0 min 146 W/m 12,9 km/h (3 Bft) 95,74 %
06.06.2021 11:06 14,9 C 15,0 C 14,5 C 96 % 1023,9 hPa 0,0 l/m 0 min 0 min 141 W/m 6,4 km/h (2 Bft) 95,74 %
06.06.2021 11:08 14,9 C 15,0 C 14,5 C 96 % 1023,9 hPa 0,0 l/m 0 min 0 min 152 W/m 6,4 km/h (2 Bft) 93,62 %
06.06.2021 11:10 15,0 C 15,0 C 14,5 C 96 % 1023,9 hPa 0,0 l/m 0 min 0 min 154 W/m 9,7 km/h (2 Bft) 93,48 %
06.06.2021 11:12 15,0 C 15,0 C 14,5 C 96 % 1023,9 hPa 0,0 l/m 0 min 0 min 152 W/m 6,4 km/h (2 Bft) 93,62 %
06.06.2021 11:14 15,0 C 15,0 C 14,5 C 96 % 1023,9 hPa 0,0 l/m 0 min 0 min 161 W/m 16,1 km/h (3 Bft) 95,74 %
06.06.2021 11:16 15,0 C 15,0 C 14,5 C 96 % 1023,9 hPa 0,0 l/m 0 min 0 min 151 W/m 9,7 km/h (2 Bft) 95,74 %
06.06.2021 11:18 15,0 C 15,6 C 14,5 C 96 % 1024,0 hPa 0,0 l/m 0 min 0 min 157 W/m 6,4 km/h (2 Bft) 95,74 %
06.06.2021 11:20 15,1 C 15,6 C 15,0 C 96 % 1024,0 hPa 0,0 l/m 0 min 0 min 175 W/m 12,9 km/h (3 Bft) 93,62 %
06.06.2021 11:22 15,1 C 15,6 C 15,0 C 96 % 1024,0 hPa 0,0 l/m 0 min 0 min 174 W/m 6,4 km/h (2 Bft) 93,48 %
06.06.2021 11:24 15,1 C 15,6 C 15,0 C 96 % 1024,0 hPa 0,0 l/m 0 min 0 min 161 W/m 6,4 km/h (2 Bft) 95,74 %
06.06.2021 11:26 15,2 C 15,6 C 15,0 C 96 % 1024,1 hPa 0,0 l/m 0 min 0 min 144 W/m 12,9 km/h (3 Bft) 95,74 %
06.06.2021 11:28 15,3 C 15,6 C 15,0 C 96 % 1024,1 hPa 0,0 l/m 0 min 0 min 153 W/m 9,7 km/h (2 Bft) 97,87 %
06.06.2021 11:30 15,3 C 15,6 C 15,0 C 96 % 1024,1 hPa 0,0 l/m 0 min 0 min 157 W/m 6,4 km/h (2 Bft) 95,74 %
06.06.2021 11:32 15,3 C 15,6 C 15,0 C 96 % 1024,1 hPa 0,0 l/m 0 min 0 min 174 W/m 12,9 km/h (3 Bft) 97,87 %
06.06.2021 11:34 15,3 C 15,0 C 15,0 C 95 % 1024,1 hPa 0,0 l/m 0 min 0 min 177 W/m 6,4 km/h (2 Bft) 91,30 %
06.06.2021 11:36 15,3 C 15,6 C 15,0 C 95 % 1024,1 hPa 0,0 l/m 0 min 0 min 174 W/m 6,4 km/h (2 Bft) 97,87 %
06.06.2021 11:38 15,3 C 15,6 C 15,0 C 95 % 1024,2 hPa 0,0 l/m 0 min 0 min 184 W/m 9,7 km/h (2 Bft) 95,74 %
06.06.2021 11:40 15,3 C 15,6 C 15,0 C 95 % 1024,0 hPa 0,0 l/m 0 min 0 min 169 W/m 9,7 km/h (2 Bft) 97,87 %
06.06.2021 11:42 15,4 C 15,6 C 15,0 C 95 % 1024,1 hPa 0,0 l/m 0 min 0 min 180 W/m 9,7 km/h (2 Bft) 95,74 %
06.06.2021 11:44 15,4 C 15,6 C 15,0 C 95 % 1024,0 hPa 0,0 l/m 0 min 0 min 170 W/m 3,2 km/h (1 Bft) 95,74 %
06.06.2021 11:46 15,5 C 15,6 C 15,0 C 95 % 1024,1 hPa 0,0 l/m 0 min 0 min 168 W/m 9,7 km/h (2 Bft) 95,65 %
06.06.2021 11:48 15,5 C 15,6 C 15,0 C 95 % 1024,1 hPa 0,0 l/m 0 min 0 min 177 W/m 6,4 km/h (2 Bft) 93,62 %
06.06.2021 11:50 15,5 C 15,6 C 15,0 C 95 % 1024,1 hPa 0,0 l/m 0 min 0 min 189 W/m 6,4 km/h (2 Bft) 95,74 %
06.06.2021 11:52 15,5 C 15,6 C 15,0 C 95 % 1024,1 hPa 0,0 l/m 0 min 0 min 186 W/m 12,9 km/h (3 Bft) 93,62 %
06.06.2021 11:54 15,5 C 15,6 C 15,0 C 95 % 1024,1 hPa 0,0 l/m 0 min 0 min 164 W/m 9,7 km/h (2 Bft) 95,74 %
06.06.2021 11:56 15,6 C 15,6 C 15,0 C 94 % 1024,1 hPa 0,0 l/m 0 min 0 min 160 W/m 6,4 km/h (2 Bft) 95,74 %
06.06.2021 11:58 15,6 C 15,6 C 15,0 C 94 % 1024,1 hPa 0,0 l/m 0 min 0 min 151 W/m 12,9 km/h (3 Bft) 93,48 %
06.06.2021 12:00 15,6 C 15,6 C 15,0 C 94 % 1024,1 hPa 0,0 l/m 0 min 0 min 148 W/m 12,9 km/h (3 Bft) 97,87 %
06.06.2021 12:02 15,6 C 15,6 C 15,0 C 94 % 1024,2 hPa 0,0 l/m 0 min 0 min 140 W/m 12,9 km/h (3 Bft) 95,74 %
06.06.2021 12:04 15,6 C 15,6 C 15,0 C 94 % 1024,2 hPa 0,0 l/m 0 min 0 min 146 W/m 12,9 km/h (3 Bft) 97,87 %
06.06.2021 12:08 15,6 C 15,6 C 15,0 C 94 % 1024,2 hPa 0,0 l/m 0 min 0 min 149 W/m 9,7 km/h (2 Bft) 97,87 %
06.06.2021 12:10 15,6 C 15,6 C 15,0 C 94 % 1024,2 hPa 0,0 l/m 0 min 0 min 134 W/m 9,7 km/h (2 Bft) 97,83 %
06.06.2021 12:12 15,7 C 15,6 C 15,0 C 94 % 1024,2 hPa 0,0 l/m 0 min 0 min 134 W/m 6,4 km/h (2 Bft) 95,74 %
06.06.2021 12:14 15,7 C 15,6 C 15,0 C 94 % 1024,2 hPa 0,0 l/m 0 min 0 min 134 W/m 3,2 km/h (1 Bft) 97,87 %
06.06.2021 12:16 15,8 C 15,6 C 15,0 C 94 % 1024,2 hPa 0,0 l/m 0 min 0 min 131 W/m 3,2 km/h (1 Bft) 97,87 %
06.06.2021 12:18 15,8 C 15,6 C 15,0 C 94 % 1024,2 hPa 0,0 l/m 0 min 0 min 129 W/m 12,9 km/h (3 Bft) 98,00 %
06.06.2021 12:20 15,8 C 15,6 C 15,0 C 94 % 1024,2 hPa 0,0 l/m 0 min 0 min 142 W/m 16,1 km/h (3 Bft) 95,65 %
06.06.2021 12:22 15,8 C 15,6 C 15,0 C 94 % 1024,2 hPa 0,0 l/m 0 min 0 min 171 W/m 12,9 km/h (3 Bft) 46,51 %
06.06.2021 12:24 15,8 C 16,1 C 15,0 C 94 % 1024,2 hPa 0,0 l/m 0 min 0 min 166 W/m 12,9 km/h (3 Bft) 97,62 %
06.06.2021 12:26 15,9 C 16,1 C 15,0 C 94 % 1024,2 hPa 0,0 l/m 0 min 0 min 163 W/m 16,1 km/h (3 Bft) 97,87 %
06.06.2021 12:28 15,9 C 16,1 C 15,0 C 94 % 1024,2 hPa 0,0 l/m 0 min 0 min 180 W/m 9,7 km/h (2 Bft) 97,87 %
06.06.2021 12:30 15,9 C 16,1 C 15,0 C 93 % 1024,3 hPa 0,0 l/m 0 min 0 min 160 W/m 12,9 km/h (3 Bft) 97,87 %
06.06.2021 12:32 15,9 C 16,1 C 15,0 C 93 % 1024,3 hPa 0,0 l/m 0 min 0 min 154 W/m 12,9 km/h (3 Bft) 95,65 %
06.06.2021 12:34 15,9 C 16,1 C 15,6 C 93 % 1024,3 hPa 0,0 l/m 0 min 0 min 179 W/m 9,7 km/h (2 Bft) 100,00 %
06.06.2021 12:36 16,0 C 16,1 C 15,6 C 93 % 1024,3 hPa 0,0 l/m 0 min 0 min 173 W/m 6,4 km/h (2 Bft) 100,00 %
06.06.2021 12:38 16,0 C 16,1 C 15,6 C 93 % 1024,3 hPa 0,0 l/m 0 min 0 min 144 W/m 6,4 km/h (2 Bft) 100,00 %
06.06.2021 12:40 16,0 C 16,1 C 15,0 C 93 % 1024,3 hPa 0,0 l/m 0 min 0 min 127 W/m 6,4 km/h (2 Bft) 100,00 %
06.06.2021 12:42 16,0 C 16,1 C 15,0 C 93 % 1024,3 hPa 0,0 l/m 0 min 0 min 127 W/m 9,7 km/h (2 Bft) 100,00 %
06.06.2021 12:44 16,0 C 16,1 C 15,0 C 93 % 1024,3 hPa 0,0 l/m 0 min 0 min 139 W/m 9,7 km/h (2 Bft) 100,00 %
06.06.2021 12:46 16,1 C 16,1 C 15,0 C 93 % 1024,3 hPa 0,0 l/m 0 min 0 min 168 W/m 12,9 km/h (3 Bft) 100,00 %
06.06.2021 12:48 16,1 C 16,1 C 15,6 C 93 % 1024,3 hPa 0,0 l/m 0 min 0 min 184 W/m 9,7 km/h (2 Bft) 100,00 %
06.06.2021 12:50 16,1 C 16,1 C 15,6 C 93 % 1024,3 hPa 0,0 l/m 0 min 0 min 175 W/m 9,7 km/h (2 Bft) 100,00 %
06.06.2021 12:52 16,1 C 16,1 C 15,6 C 93 % 1024,3 hPa 0,0 l/m 0 min 0 min 164 W/m 9,7 km/h (2 Bft) 100,00 %
06.06.2021 12:54 16,1 C 16,1 C 15,6 C 93 % 1024,3 hPa 0,0 l/m 0 min 0 min 157 W/m 12,9 km/h (3 Bft) 100,00 %
06.06.2021 12:56 16,1 C 16,1 C 15,6 C 93 % 1024,3 hPa 0,0 l/m 0 min 0 min 167 W/m 16,1 km/h (3 Bft) 100,00 %
06.06.2021 12:58 16,1 C 16,1 C 15,6 C 92 % 1024,3 hPa 0,0 l/m 0 min 0 min 196 W/m 9,7 km/h (2 Bft) 100,00 %
06.06.2021 13:00 16,1 C 16,1 C 15,6 C 92 % 1024,3 hPa 0,0 l/m 0 min 0 min 208 W/m 9,7 km/h (2 Bft) 100,00 %
06.06.2021 13:02 16,2 C 16,7 C 15,6 C 92 % 1024,2 hPa 0,0 l/m 0 min 0 min 212 W/m 6,4 km/h (2 Bft) 100,00 %
06.06.2021 13:04 16,3 C 16,7 C 15,6 C 92 % 1024,3 hPa 0,0 l/m 0 min 0 min 212 W/m 12,9 km/h (3 Bft) 100,00 %
06.06.2021 13:06 16,3 C 16,7 C 15,6 C 92 % 1024,3 hPa 0,0 l/m 0 min 0 min 169 W/m 9,7 km/h (2 Bft) 100,00 %
06.06.2021 13:08 16,4 C 16,7 C 15,6 C 92 % 1024,3 hPa 0,0 l/m 0 min 0 min 193 W/m 12,9 km/h (3 Bft) 100,00 %
06.06.2021 13:10 16,4 C 16,7 C 15,6 C 92 % 1024,3 hPa 0,0 l/m 0 min 0 min 244 W/m 12,9 km/h (3 Bft) 100,00 %
06.06.2021 13:12 16,4 C 16,7 C 15,6 C 92 % 1024,2 hPa 0,0 l/m 0 min 0 min 224 W/m 9,7 km/h (2 Bft) 100,00 %
06.06.2021 13:14 16,4 C 16,7 C 15,6 C 92 % 1024,2 hPa 0,0 l/m 0 min 0 min 192 W/m 12,9 km/h (3 Bft) 100,00 %
06.06.2021 13:16 16,5 C 16,7 C 15,6 C 92 % 1024,2 hPa 0,0 l/m 0 min 0 min 193 W/m 12,9 km/h (3 Bft) 97,87 %
06.06.2021 13:18 16,5 C 16,7 C 15,6 C 92 % 1024,2 hPa 0,0 l/m 0 min 0 min 213 W/m 12,9 km/h (3 Bft) 97,87 %
06.06.2021 13:20 16,5 C 16,7 C 15,6 C 92 % 1024,2 hPa 0,0 l/m 0 min 0 min 192 W/m 12,9 km/h (3 Bft) 97,83 %
06.06.2021 13:22 16,5 C 16,7 C 15,6 C 92 % 1024,2 hPa 0,0 l/m 0 min 0 min 176 W/m 22,5 km/h (4 Bft) 97,87 %
06.06.2021 13:24 16,5 C 16,7 C 15,6 C 91 % 1024,2 hPa 0,0 l/m 0 min 0 min 189 W/m 12,9 km/h (3 Bft) 95,74 %
06.06.2021 13:26 16,5 C 16,7 C 15,6 C 91 % 1024,2 hPa 0,0 l/m 0 min 0 min 198 W/m 12,9 km/h (3 Bft) 97,87 %
06.06.2021 13:28 16,5 C 16,7 C 15,6 C 91 % 1024,2 hPa 0,0 l/m 0 min 0 min 180 W/m 9,7 km/h (2 Bft) 93,62 %
06.06.2021 13:30 16,5 C 16,7 C 15,6 C 91 % 1024,2 hPa 0,0 l/m 0 min 0 min 162 W/m 9,7 km/h (2 Bft) 95,74 %
06.06.2021 13:32 16,5 C 16,7 C 15,6 C 91 % 1024,2 hPa 0,0 l/m 0 min 0 min 150 W/m 9,7 km/h (2 Bft) 97,83 %
06.06.2021 13:34 16,5 C 16,7 C 15,6 C 91 % 1024,2 hPa 0,0 l/m 0 min 0 min 141 W/m 9,7 km/h (2 Bft) 97,87 %
06.06.2021 13:36 16,5 C 16,1 C 15,6 C 91 % 1024,1 hPa 0,0 l/m 0 min 0 min 149 W/m 9,7 km/h (2 Bft) 97,87 %
06.06.2021 13:38 16,6 C 16,7 C 15,6 C 91 % 1024,1 hPa 0,0 l/m 0 min 0 min 158 W/m 6,4 km/h (2 Bft) 97,87 %
06.06.2021 13:40 16,6 C 16,7 C 15,6 C 91 % 1024,1 hPa 0,0 l/m 0 min 0 min 165 W/m 9,7 km/h (2 Bft) 97,87 %
06.06.2021 13:42 16,6 C 16,7 C 15,6 C 91 % 1024,1 hPa 0,0 l/m 0 min 0 min 154 W/m 19,3 km/h (3 Bft) 97,87 %
06.06.2021 13:44 16,6 C 16,7 C 15,6 C 91 % 1024,1 hPa 0,0 l/m 0 min 0 min 135 W/m 9,7 km/h (2 Bft) 97,83 %
06.06.2021 13:46 16,6 C 16,7 C 15,6 C 91 % 1024,1 hPa 0,0 l/m 0 min 0 min 124 W/m 9,7 km/h (2 Bft) 93,62 %
06.06.2021 13:48 16,6 C 16,7 C 15,6 C 91 % 1024,1 hPa 0,0 l/m 0 min 0 min 129 W/m 12,9 km/h (3 Bft) 97,87 %
06.06.2021 13:50 16,6 C 16,7 C 15,6 C 90 % 1024,1 hPa 0,0 l/m 0 min 0 min 153 W/m 9,7 km/h (2 Bft) 97,87 %
06.06.2021 13:52 16,6 C 16,7 C 15,6 C 90 % 1024,1 hPa 0,0 l/m 0 min 0 min 187 W/m 6,4 km/h (2 Bft) 95,74 %
06.06.2021 13:54 16,6 C 16,7 C 15,6 C 91 % 1024,0 hPa 0,0 l/m 0 min 0 min 198 W/m 12,9 km/h (3 Bft) 97,83 %
06.06.2021 13:56 16,6 C 16,7 C 15,6 C 91 % 1024,0 hPa 0,0 l/m 0 min 0 min 181 W/m 12,9 km/h (3 Bft) 97,87 %
06.06.2021 13:58 16,6 C 16,7 C 15,6 C 91 % 1024,0 hPa 0,0 l/m 0 min 0 min 190 W/m 16,1 km/h (3 Bft) 97,87 %
06.06.2021 14:00 16,6 C 16,7 C 15,6 C 91 % 1024,0 hPa 0,0 l/m 0 min 0 min 211 W/m 12,9 km/h (3 Bft) 97,87 %
06.06.2021 14:02 16,7 C 17,2 C 15,6 C 91 % 1024,0 hPa 0,0 l/m 0 min 0 min 199 W/m 16,1 km/h (3 Bft) 100,00 %
06.06.2021 14:04 16,7 C 17,2 C 15,6 C 91 % 1024,0 hPa 0,0 l/m 0 min 0 min 176 W/m 9,7 km/h (2 Bft) 100,00 %
06.06.2021 14:06 16,8 C 17,2 C 15,6 C 91 % 1024,0 hPa 0,0 l/m 0 min 0 min 183 W/m 9,7 km/h (2 Bft) 100,00 %
06.06.2021 14:08 16,8 C 17,2 C 15,6 C 91 % 1024,0 hPa 0,0 l/m 0 min 0 min 190 W/m 6,4 km/h (2 Bft) 100,00 %
06.06.2021 14:10 16,8 C 16,7 C 15,6 C 91 % 1024,0 hPa 0,0 l/m 0 min 0 min 169 W/m 12,9 km/h (3 Bft) 100,00 %
06.06.2021 14:12 16,8 C 17,2 C 15,6 C 91 % 1024,0 hPa 0,0 l/m 0 min 0 min 150 W/m 9,7 km/h (2 Bft) 100,00 %
06.06.2021 14:14 16,9 C 17,2 C 15,6 C 90 % 1024,0 hPa 0,0 l/m 0 min 0 min 152 W/m 12,9 km/h (3 Bft) 100,00 %
06.06.2021 14:16 16,9 C 16,7 C 15,6 C 90 % 1024,0 hPa 0,0 l/m 0 min 0 min 177 W/m 12,9 km/h (3 Bft) 100,00 %
06.06.2021 14:18 16,8 C 16,7 C 15,6 C 90 % 1024,0 hPa 0,0 l/m 0 min 0 min 206 W/m 12,9 km/h (3 Bft) 100,00 %
06.06.2021 14:20 16,9 C 17,2 C 15,6 C 90 % 1024,0 hPa 0,0 l/m 0 min 0 min 240 W/m 12,9 km/h (3 Bft) 100,00 %
06.06.2021 14:22 16,9 C 17,2 C 16,1 C 90 % 1024,0 hPa 0,0 l/m 0 min 0 min 261 W/m 12,9 km/h (3 Bft) 100,00 %
06.06.2021 14:24 16,9 C 17,2 C 16,1 C 90 % 1024,0 hPa 0,0 l/m 0 min 0 min 272 W/m 9,7 km/h (2 Bft) 100,00 %
06.06.2021 14:26 16,9 C 17,2 C 16,1 C 90 % 1024,0 hPa 0,0 l/m 0 min 0 min 253 W/m 12,9 km/h (3 Bft) 100,00 %
06.06.2021 14:28 17,0 C 17,2 C 16,1 C 90 % 1024,0 hPa 0,0 l/m 0 min 0 min 225 W/m 12,9 km/h (3 Bft) 100,00 %
06.06.2021 14:30 17,0 C 17,2 C 16,1 C 90 % 1024,0 hPa 0,0 l/m 0 min 0 min 193 W/m 9,7 km/h (2 Bft) 100,00 %
06.06.2021 14:32 17,0 C 17,2 C 16,1 C 90 % 1024,0 hPa 0,0 l/m 0 min 0 min 166 W/m 6,4 km/h (2 Bft) 100,00 %
06.06.2021 14:34 17,0 C 17,2 C 16,1 C 90 % 1023,9 hPa 0,0 l/m 0 min 0 min 156 W/m 9,7 km/h (2 Bft) 100,00 %
06.06.2021 14:36 17,1 C 17,2 C 16,1 C 90 % 1024,0 hPa 0,0 l/m 0 min 0 min 149 W/m 12,9 km/h (3 Bft) 100,00 %
06.06.2021 14:38 17,1 C 17,2 C 16,1 C 90 % 1024,0 hPa 0,0 l/m 0 min 0 min 144 W/m 12,9 km/h (3 Bft) 100,00 %
06.06.2021 14:40 17,1 C 17,2 C 15,6 C 89 % 1023,9 hPa 0,0 l/m 0 min 0 min 173 W/m 12,9 km/h (3 Bft) 100,00 %
06.06.2021 14:42 17,1 C 17,2 C 15,6 C 89 % 1023,9 hPa 0,0 l/m 0 min 0 min 175 W/m 16,1 km/h (3 Bft) 100,00 %
06.06.2021 14:44 17,1 C 17,2 C 15,6 C 89 % 1024,0 hPa 0,0 l/m 0 min 0 min 171 W/m 9,7 km/h (2 Bft) 97,87 %
06.06.2021 14:46 17,1 C 17,2 C 15,6 C 89 % 1023,9 hPa 0,0 l/m 0 min 0 min 182 W/m 3,2 km/h (1 Bft) 100,00 %
06.06.2021 14:48 17,1 C 17,2 C 15,6 C 89 % 1023,9 hPa 0,0 l/m 0 min 0 min 184 W/m 16,1 km/h (3 Bft) 100,00 %
06.06.2021 14:50 17,1 C 17,2 C 16,1 C 89 % 1023,9 hPa 0,0 l/m 0 min 0 min 199 W/m 16,1 km/h (3 Bft) 100,00 %
06.06.2021 14:52 17,1 C 17,2 C 16,1 C 89 % 1023,9 hPa 0,0 l/m 0 min 0 min 210 W/m 12,9 km/h (3 Bft) 97,87 %
06.06.2021 14:54 17,1 C 17,2 C 16,1 C 89 % 1023,9 hPa 0,0 l/m 0 min 0 min 201 W/m 16,1 km/h (3 Bft) 97,87 %
06.06.2021 14:56 17,2 C 17,2 C 16,1 C 89 % 1023,9 hPa 0,0 l/m 0 min 0 min 192 W/m 9,7 km/h (2 Bft) 100,00 %
06.06.2021 14:58 17,2 C 17,8 C 16,1 C 89 % 1023,9 hPa 0,0 l/m 0 min 0 min 195 W/m 6,4 km/h (2 Bft) 100,00 %
06.06.2021 15:00 17,3 C 17,8 C 16,1 C 89 % 1023,9 hPa 0,0 l/m 0 min 0 min 206 W/m 6,4 km/h (2 Bft) 100,00 %
06.06.2021 15:02 17,3 C 17,8 C 16,1 C 89 % 1023,9 hPa 0,0 l/m 0 min 0 min 183 W/m 9,7 km/h (2 Bft) 100,00 %
06.06.2021 15:04 17,3 C 17,8 C 16,1 C 89 % 1023,9 hPa 0,0 l/m 0 min 0 min 163 W/m 6,4 km/h (2 Bft) 97,87 %
06.06.2021 15:06 17,4 C 17,8 C 16,1 C 89 % 1024,0 hPa 0,0 l/m 0 min 0 min 169 W/m 16,1 km/h (3 Bft) 95,65 %
06.06.2021 15:08 17,4 C 17,8 C 16,1 C 89 % 1023,9 hPa 0,0 l/m 0 min 0 min 166 W/m 12,9 km/h (3 Bft) 97,87 %
06.06.2021 15:10 17,4 C 17,2 C 16,1 C 89 % 1024,0 hPa 0,0 l/m 0 min 0 min 157 W/m 6,4 km/h (2 Bft) 97,87 %
06.06.2021 15:12 17,4 C 17,2 C 16,1 C 89 % 1024,0 hPa 0,0 l/m 0 min 0 min 156 W/m 12,9 km/h (3 Bft) 97,87 %
06.06.2021 15:14 17,4 C 17,2 C 16,1 C 89 % 1024,0 hPa 0,0 l/m 0 min 0 min 150 W/m 12,9 km/h (3 Bft) 97,87 %
06.06.2021 15:16 17,4 C 17,2 C 16,1 C 89 % 1024,0 hPa 0,0 l/m 0 min 0 min 152 W/m 12,9 km/h (3 Bft) 95,74 %
06.06.2021 15:18 17,4 C 17,2 C 16,1 C 88 % 1024,0 hPa 0,0 l/m 0 min 0 min 174 W/m 12,9 km/h (3 Bft) 97,83 %
06.06.2021 15:20 17,4 C 17,2 C 16,1 C 89 % 1024,0 hPa 0,0 l/m 0 min 0 min 184 W/m 6,4 km/h (2 Bft) 95,74 %
06.06.2021 15:22 17,4 C 17,8 C 16,1 C 89 % 1024,0 hPa 0,0 l/m 0 min 0 min 165 W/m 9,7 km/h (2 Bft) 93,62 %
06.06.2021 15:24 17,4 C 17,8 C 16,1 C 89 % 1023,9 hPa 0,0 l/m 0 min 0 min 151 W/m 12,9 km/h (3 Bft) 93,62 %
06.06.2021 15:26 17,4 C 17,8 C 16,1 C 89 % 1023,9 hPa 0,0 l/m 0 min 0 min 163 W/m 16,1 km/h (3 Bft) 95,74 %
06.06.2021 15:28 17,4 C 17,8 C 16,1 C 89 % 1023,9 hPa 0,0 l/m 0 min 0 min 175 W/m 12,9 km/h (3 Bft) 95,74 %
06.06.2021 15:30 17,4 C 17,2 C 16,1 C 88 % 1023,9 hPa 0,0 l/m 0 min 0 min 178 W/m 12,9 km/h (3 Bft) 93,48 %
06.06.2021 15:32 17,5 C 17,8 C 16,1 C 88 % 1023,8 hPa 0,0 l/m 0 min 0 min 181 W/m 3,2 km/h (1 Bft) 93,62 %
06.06.2021 15:34 17,5 C 17,8 C 16,1 C 89 % 1023,8 hPa 0,0 l/m 0 min 0 min 181 W/m 6,4 km/h (2 Bft) 97,87 %
06.06.2021 15:36 17,5 C 17,8 C 16,1 C 88 % 1023,8 hPa 0,0 l/m 0 min 0 min 188 W/m 12,9 km/h (3 Bft) 95,74 %
06.06.2021 15:38 17,5 C 17,2 C 16,1 C 88 % 1023,8 hPa 0,0 l/m 0 min 0 min 192 W/m 16,1 km/h (3 Bft) 93,62 %
06.06.2021 15:40 17,5 C 17,2 C 16,1 C 88 % 1023,8 hPa 0,0 l/m 0 min 0 min 192 W/m 6,4 km/h (2 Bft) 95,74 %
06.06.2021 15:42 17,5 C 17,2 C 16,1 C 88 % 1023,8 hPa 0,0 l/m 0 min 0 min 189 W/m 9,7 km/h (2 Bft) 95,65 %
06.06.2021 15:44 17,5 C 17,2 C 16,1 C 88 % 1023,8 hPa 0,0 l/m 0 min 0 min 188 W/m 9,7 km/h (2 Bft) 95,74 %
06.06.2021 15:46 17,5 C 17,2 C 16,1 C 88 % 1023,8 hPa 0,0 l/m 0 min 0 min 189 W/m 6,4 km/h (2 Bft) 95,74 %
06.06.2021 15:48 17,5 C 17,8 C 16,1 C 88 % 1023,8 hPa 0,0 l/m 0 min 0 min 194 W/m 12,9 km/h (3 Bft) 95,74 %
06.06.2021 15:50 17,5 C 17,2 C 16,1 C 88 % 1023,8 hPa 0,0 l/m 0 min 0 min 202 W/m 6,4 km/h (2 Bft) 95,74 %
06.06.2021 15:52 17,5 C 17,8 C 16,1 C 88 % 1023,8 hPa 0,0 l/m 0 min 0 min 210 W/m 6,4 km/h (2 Bft) 93,48 %
06.06.2021 15:54 17,6 C 17,8 C 16,1 C 88 % 1023,9 hPa 0,0 l/m 0 min 0 min 215 W/m 9,7 km/h (2 Bft) 93,62 %
06.06.2021 15:56 17,6 C 17,8 C 16,1 C 88 % 1023,9 hPa 0,0 l/m 0 min 0 min 220 W/m 9,7 km/h (2 Bft) 93,62 %
06.06.2021 15:58 17,6 C 17,8 C 16,1 C 88 % 1023,9 hPa 0,0 l/m 0 min 0 min 226 W/m 9,7 km/h (2 Bft) 93,62 %
06.06.2021 16:00 17,6 C 17,8 C 16,1 C 88 % 1023,9 hPa 0,0 l/m 0 min 0 min 239 W/m 6,4 km/h (2 Bft) 95,74 %
06.06.2021 16:02 17,7 C 17,8 C 16,7 C 88 % 1023,9 hPa 0,0 l/m 0 min 0 min 253 W/m 6,4 km/h (2 Bft) 100,00 %
06.06.2021 16:04 17,8 C 17,8 C 16,7 C 88 % 1023,9 hPa 0,0 l/m 0 min 0 min 263 W/m 6,4 km/h (2 Bft) 95,74 %
06.06.2021 16:06 17,8 C 18,3 C 16,7 C 88 % 1023,8 hPa 0,0 l/m 0 min 0 min 264 W/m 9,7 km/h (2 Bft) 93,48 %
06.06.2021 16:08 17,8 C 18,3 C 16,7 C 88 % 1023,8 hPa 0,0 l/m 0 min 0 min 266 W/m 6,4 km/h (2 Bft) 95,74 %
06.06.2021 16:10 17,9 C 18,3 C 16,7 C 88 % 1023,8 hPa 0,0 l/m 0 min 0 min 271 W/m 3,2 km/h (1 Bft) 93,62 %
06.06.2021 16:12 17,9 C 18,3 C 16,7 C 88 % 1023,8 hPa 0,0 l/m 0 min 0 min 275 W/m 6,4 km/h (2 Bft) 93,62 %
06.06.2021 16:14 18,0 C 18,3 C 16,7 C 88 % 1023,9 hPa 0,0 l/m 0 min 0 min 272 W/m 9,7 km/h (2 Bft) 93,62 %
06.06.2021 16:16 18,0 C 18,3 C 16,7 C 88 % 1023,9 hPa 0,0 l/m 0 min 0 min 269 W/m 12,9 km/h (3 Bft) 95,65 %
06.06.2021 16:18 18,0 C 18,3 C 16,7 C 88 % 1023,9 hPa 0,0 l/m 0 min 0 min 272 W/m 6,4 km/h (2 Bft) 95,74 %
06.06.2021 16:20 18,1 C 18,3 C 16,7 C 88 % 1023,9 hPa 0,0 l/m 0 min 0 min 277 W/m 9,7 km/h (2 Bft) 95,74 %
06.06.2021 16:22 18,1 C 18,3 C 16,7 C 88 % 1023,9 hPa 0,0 l/m 0 min 0 min 277 W/m 6,4 km/h (2 Bft) 93,62 %
06.06.2021 16:24 18,2 C 18,3 C 16,7 C 87 % 1023,8 hPa 0,0 l/m 0 min 0 min 272 W/m 12,9 km/h (3 Bft) 93,62 %
06.06.2021 16:26 18,3 C 18,3 C 16,7 C 87 % 1023,8 hPa 0,0 l/m 0 min 0 min 268 W/m 9,7 km/h (2 Bft) 97,87 %
06.06.2021 16:28 18,3 C 18,9 C 17,3 C 87 % 1023,8 hPa 0,0 l/m 0 min 0 min 266 W/m 12,9 km/h (3 Bft) 97,87 %
06.06.2021 16:30 18,3 C 18,9 C 16,7 C 87 % 1023,8 hPa 0,0 l/m 0 min 0 min 262 W/m 9,7 km/h (2 Bft) 97,83 %
06.06.2021 16:32 18,4 C 18,9 C 17,3 C 87 % 1023,8 hPa 0,0 l/m 0 min 0 min 257 W/m 6,4 km/h (2 Bft) 95,74 %
06.06.2021 16:34 18,4 C 18,9 C 17,3 C 87 % 1023,8 hPa 0,0 l/m 0 min 0 min 257 W/m 9,7 km/h (2 Bft) 95,74 %
06.06.2021 16:36 18,4 C 18,9 C 17,3 C 87 % 1023,7 hPa 0,0 l/m 0 min 0 min 259 W/m 9,7 km/h (2 Bft) 100,00 %
06.06.2021 16:38 18,4 C 18,9 C 17,3 C 86 % 1023,7 hPa 0,0 l/m 0 min 0 min 263 W/m 9,7 km/h (2 Bft) 100,00 %
06.06.2021 16:40 18,5 C 18,9 C 17,3 C 86 % 1023,7 hPa 0,0 l/m 0 min 0 min 266 W/m 9,7 km/h (2 Bft) 100,00 %
06.06.2021 16:42 18,5 C 18,9 C 17,3 C 86 % 1023,7 hPa 0,0 l/m 0 min 0 min 265 W/m 6,4 km/h (2 Bft) 100,00 %
06.06.2021 16:44 18,5 C 18,9 C 17,3 C 86 % 1023,7 hPa 0,0 l/m 0 min 0 min 258 W/m 6,4 km/h (2 Bft) 95,74 %
06.06.2021 16:46 18,5 C 18,9 C 17,3 C 86 % 1023,8 hPa 0,0 l/m 0 min 0 min 248 W/m 6,4 km/h (2 Bft) 100,00 %
06.06.2021 16:48 18,6 C 18,9 C 17,3 C 86 % 1023,7 hPa 0,0 l/m 0 min 0 min 247 W/m 6,4 km/h (2 Bft) 100,00 %
06.06.2021 16:50 18,6 C 18,9 C 17,3 C 86 % 1023,7 hPa 0,0 l/m 0 min 0 min 257 W/m 9,7 km/h (2 Bft) 100,00 %
06.06.2021 16:52 18,6 C 18,9 C 17,3 C 86 % 1023,7 hPa 0,0 l/m 0 min 0 min 258 W/m 19,3 km/h (3 Bft) 100,00 %
06.06.2021 16:54 18,6 C 18,9 C 17,3 C 86 % 1023,7 hPa 0,0 l/m 0 min 0 min 257 W/m 16,1 km/h (3 Bft) 97,87 %
06.06.2021 16:56 18,7 C 18,9 C 17,3 C 85 % 1023,7 hPa 0,0 l/m 0 min 0 min 255 W/m 9,7 km/h (2 Bft) 97,87 %
06.06.2021 16:58 18,8 C 18,9 C 17,3 C 86 % 1023,6 hPa 0,0 l/m 0 min 0 min 255 W/m 6,4 km/h (2 Bft) 100,00 %
06.06.2021 17:00 18,8 C 19,4 C 17,3 C 86 % 1023,6 hPa 0,0 l/m 0 min 0 min 265 W/m 19,3 km/h (3 Bft) 100,00 %
06.06.2021 17:02 18,8 C 18,9 C 17,3 C 86 % 1023,6 hPa 0,0 l/m 0 min 0 min 266 W/m 9,7 km/h (2 Bft) 100,00 %
06.06.2021 17:04 18,8 C 18,9 C 17,3 C 85 % 1023,6 hPa 0,0 l/m 0 min 0 min 246 W/m 9,7 km/h (2 Bft) 100,00 %
06.06.2021 17:06 18,8 C 18,9 C 17,3 C 85 % 1023,6 hPa 0,0 l/m 0 min 0 min 226 W/m 9,7 km/h (2 Bft) 97,87 %
06.06.2021 17:08 18,8 C 18,9 C 17,3 C 85 % 1023,6 hPa 0,0 l/m 0 min 0 min 219 W/m 9,7 km/h (2 Bft) 100,00 %
06.06.2021 17:10 18,9 C 18,9 C 17,3 C 85 % 1023,6 hPa 0,0 l/m 0 min 0 min 205 W/m 12,9 km/h (3 Bft) 100,00 %
06.06.2021 17:12 18,8 C 18,9 C 17,3 C 85 % 1023,6 hPa 0,0 l/m 0 min 0 min 182 W/m 12,9 km/h (3 Bft) 100,00 %
06.06.2021 17:14 18,8 C 18,9 C 17,3 C 85 % 1023,6 hPa 0,0 l/m 0 min 0 min 168 W/m 16,1 km/h (3 Bft) 100,00 %
06.06.2021 17:16 18,8 C 18,9 C 16,7 C 85 % 1023,6 hPa 0,0 l/m 0 min 0 min 171 W/m 9,7 km/h (2 Bft) 97,83 %
06.06.2021 17:18 18,8 C 18,9 C 16,7 C 86 % 1023,5 hPa 0,0 l/m 0 min 0 min 182 W/m 6,4 km/h (2 Bft) 97,87 %
06.06.2021 17:20 18,8 C 18,3 C 16,7 C 86 % 1023,6 hPa 0,0 l/m 0 min 0 min 180 W/m 9,7 km/h (2 Bft) 100,00 %
06.06.2021 17:22 18,8 C 18,3 C 16,7 C 86 % 1023,6 hPa 0,0 l/m 0 min 0 min 178 W/m 12,9 km/h (3 Bft) 100,00 %
06.06.2021 17:24 18,8 C 18,3 C 16,7 C 86 % 1023,5 hPa 0,0 l/m 0 min 0 min 178 W/m 9,7 km/h (2 Bft) 100,00 %
06.06.2021 17:26 18,8 C 18,3 C 16,7 C 86 % 1023,5 hPa 0,0 l/m 0 min 0 min 168 W/m 9,7 km/h (2 Bft) 100,00 %
06.06.2021 17:28 18,8 C 18,3 C 16,7 C 86 % 1023,4 hPa 0,0 l/m 0 min 0 min 156 W/m 12,9 km/h (3 Bft) 100,00 %
06.06.2021 17:30 18,7 C 18,3 C 16,7 C 86 % 1023,4 hPa 0,0 l/m 0 min 0 min 144 W/m 12,9 km/h (3 Bft) 100,00 %
06.06.2021 17:32 18,6 C 18,3 C 16,7 C 86 % 1023,4 hPa 0,0 l/m 0 min 0 min 131 W/m 6,4 km/h (2 Bft) 97,87 %
06.06.2021 17:34 18,6 C 18,3 C 16,7 C 86 % 1023,4 hPa 0,0 l/m 0 min 0 min 123 W/m 9,7 km/h (2 Bft) 100,00 %
06.06.2021 17:36 18,6 C 18,3 C 16,7 C 86 % 1023,4 hPa 0,0 l/m 0 min 0 min 122 W/m 12,9 km/h (3 Bft) 100,00 %
06.06.2021 17:38 18,6 C 18,3 C 16,7 C 86 % 1023,4 hPa 0,0 l/m 0 min 0 min 128 W/m 9,7 km/h (2 Bft) 100,00 %
06.06.2021 17:40 18,6 C 18,3 C 16,7 C 86 % 1023,4 hPa 0,0 l/m 0 min 0 min 139 W/m 9,7 km/h (2 Bft) 97,83 %
06.06.2021 17:42 18,6 C 18,3 C 16,7 C 86 % 1023,4 hPa 0,0 l/m 0 min 0 min 153 W/m 6,4 km/h (2 Bft) 100,00 %
06.06.2021 17:44 18,6 C 18,3 C 16,7 C 86 % 1023,4 hPa 0,0 l/m 0 min 0 min 168 W/m 16,1 km/h (3 Bft) 100,00 %
06.06.2021 17:46 18,6 C 18,3 C 16,7 C 86 % 1023,4 hPa 0,0 l/m 0 min 0 min 187 W/m 9,7 km/h (2 Bft) 100,00 %
06.06.2021 17:48 18,6 C 18,3 C 16,7 C 86 % 1023,4 hPa 0,0 l/m 0 min 0 min 206 W/m 9,7 km/h (2 Bft) 100,00 %
06.06.2021 17:50 18,6 C 18,3 C 16,7 C 86 % 1023,4 hPa 0,0 l/m 0 min 0 min 230 W/m 9,7 km/h (2 Bft) 100,00 %
06.06.2021 17:52 18,6 C 18,9 C 16,7 C 86 % 1023,4 hPa 0,0 l/m 0 min 0 min 253 W/m 12,9 km/h (3 Bft) 97,83 %
06.06.2021 17:54 18,6 C 18,9 C 16,7 C 85 % 1023,4 hPa 0,0 l/m 0 min 0 min 273 W/m 9,7 km/h (2 Bft) 100,00 %
06.06.2021 17:56 18,7 C 18,9 C 17,3 C 86 % 1023,3 hPa 0,0 l/m 2 min 0 min 282 W/m 12,9 km/h (3 Bft) 100,00 %
06.06.2021 17:58 18,8 C 19,4 C 17,3 C 85 % 1023,3 hPa 0,0 l/m 2 min 0 min 278 W/m 6,4 km/h (2 Bft) 100,00 %
06.06.2021 18:00 18,8 C 19,4 C 17,3 C 85 % 1023,3 hPa 0,0 l/m 0 min 0 min 271 W/m 12,9 km/h (3 Bft) 100,00 %
06.06.2021 18:02 18,9 C 19,4 C 17,3 C 85 % 1023,3 hPa 0,0 l/m 0 min 0 min 270 W/m 9,7 km/h (2 Bft) 100,00 %
06.06.2021 18:04 18,9 C 19,4 C 17,3 C 85 % 1023,3 hPa 0,0 l/m 2 min 0 min 277 W/m 9,7 km/h (2 Bft) 100,00 %
06.06.2021 18:08 18,9 C 20,0 C 17,3 C 84 % 1023,3 hPa 0,0 l/m 4 min 0 min 295 W/m 12,9 km/h (3 Bft) 98,94 %
06.06.2021 18:10 19,0 C 20,0 C 17,3 C 84 % 1023,2 hPa 0,0 l/m 2 min 0 min 345 W/m 6,4 km/h (2 Bft) 97,87 %
06.06.2021 18:12 19,1 C 20,6 C 17,3 C 84 % 1023,3 hPa 0,0 l/m 2 min 0 min 353 W/m 9,7 km/h (2 Bft) 100,00 %
06.06.2021 18:14 19,1 C 20,6 C 17,3 C 84 % 1023,2 hPa 0,0 l/m 2 min 0 min 340 W/m 6,4 km/h (2 Bft) 100,00 %
06.06.2021 18:16 19,2 C 20,6 C 17,3 C 84 % 1023,3 hPa 0,0 l/m 2 min 0 min 294 W/m 12,9 km/h (3 Bft) 100,00 %
06.06.2021 18:18 19,3 C 20,6 C 17,3 C 83 % 1023,2 hPa 0,0 l/m 2 min 0 min 274 W/m 12,9 km/h (3 Bft) 97,87 %
06.06.2021 18:20 19,3 C 20,6 C 17,3 C 83 % 1023,2 hPa 0,0 l/m 2 min 0 min 295 W/m 19,3 km/h (3 Bft) 100,00 %
06.06.2021 18:22 19,3 C 20,6 C 17,3 C 83 % 1023,2 hPa 0,0 l/m 0 min 0 min 235 W/m 9,7 km/h (2 Bft) 97,87 %
06.06.2021 18:24 19,4 C 20,0 C 17,3 C 83 % 1023,1 hPa 0,0 l/m 0 min 0 min 182 W/m 12,9 km/h (3 Bft) 95,74 %
06.06.2021 18:26 19,4 C 20,0 C 17,3 C 83 % 1023,2 hPa 0,0 l/m 0 min 0 min 175 W/m 9,7 km/h (2 Bft) 95,65 %
06.06.2021 18:28 19,4 C 20,0 C 17,3 C 83 % 1023,2 hPa 0,0 l/m 0 min 0 min 196 W/m 6,4 km/h (2 Bft) 93,62 %
06.06.2021 18:30 19,4 C 21,7 C 17,3 C 83 % 1023,2 hPa 0,0 l/m 2 min 0 min 253 W/m 6,4 km/h (2 Bft) 95,74 %
06.06.2021 18:32 19,5 C 22,2 C 17,3 C 83 % 1023,2 hPa 0,0 l/m 2 min 0 min 452 W/m 6,4 km/h (2 Bft) 95,74 %
06.06.2021 18:34 19,5 C 21,7 C 17,3 C 83 % 1023,1 hPa 0,0 l/m 2 min 0 min 312 W/m 6,4 km/h (2 Bft) 93,62 %
06.06.2021 18:36 19,6 C 21,1 C 17,8 C 82 % 1023,1 hPa 0,0 l/m 0 min 0 min 181 W/m 9,7 km/h (2 Bft) 97,87 %
06.06.2021 18:38 19,6 C 21,1 C 17,8 C 82 % 1023,1 hPa 0,0 l/m 2 min 0 min 233 W/m 9,7 km/h (2 Bft) 95,74 %
06.06.2021 18:40 19,7 C 20,6 C 17,8 C 82 % 1023,0 hPa 0,0 l/m 0 min 0 min 195 W/m 9,7 km/h (2 Bft) 95,74 %
06.06.2021 18:42 19,8 C 20,6 C 17,8 C 82 % 1023,1 hPa 0,0 l/m 0 min 0 min 171 W/m 9,7 km/h (2 Bft) 93,62 %
06.06.2021 18:44 19,8 C 20,0 C 17,8 C 82 % 1023,1 hPa 0,0 l/m 0 min 0 min 144 W/m 9,7 km/h (2 Bft) 95,74 %
06.06.2021 18:46 19,8 C 20,0 C 17,3 C 81 % 1023,1 hPa 0,0 l/m 0 min 0 min 141 W/m 12,9 km/h (3 Bft) 95,74 %
06.06.2021 18:48 19,8 C 19,4 C 17,3 C 81 % 1023,1 hPa 0,0 l/m 0 min 0 min 151 W/m 9,7 km/h (2 Bft) 95,74 %
06.06.2021 18:50 19,8 C 19,4 C 17,3 C 81 % 1023,1 hPa 0,0 l/m 0 min 0 min 128 W/m 9,7 km/h (2 Bft) 95,65 %
06.06.2021 18:52 19,7 C 19,4 C 17,3 C 82 % 1023,1 hPa 0,0 l/m 0 min 0 min 92 W/m 6,4 km/h (2 Bft) 93,62 %
06.06.2021 18:54 19,8 C 19,4 C 17,3 C 82 % 1023,0 hPa 0,0 l/m 0 min 0 min 70 W/m 3,2 km/h (1 Bft) 95,74 %
06.06.2021 18:56 19,7 C 18,9 C 17,3 C 82 % 1023,0 hPa 0,0 l/m 0 min 0 min 58 W/m 3,2 km/h (1 Bft) 93,62 %
06.06.2021 18:58 19,6 C 18,9 C 16,7 C 81 % 1023,0 hPa 0,0 l/m 0 min 0 min 50 W/m 3,2 km/h (1 Bft) 97,87 %
06.06.2021 19:00 19,6 C 18,9 C 16,7 C 82 % 1022,9 hPa 0,0 l/m 0 min 0 min 43 W/m 6,4 km/h (2 Bft) 93,62 %
06.06.2021 19:02 19,5 C 18,9 C 16,7 C 82 % 1023,0 hPa 0,0 l/m 0 min 0 min 44 W/m 6,4 km/h (2 Bft) 95,65 %
06.06.2021 19:04 19,5 C 18,3 C 16,7 C 82 % 1022,9 hPa 0,0 l/m 0 min 0 min 52 W/m 9,7 km/h (2 Bft) 95,74 %
06.06.2021 19:06 19,5 C 18,3 C 16,7 C 82 % 1023,0 hPa 0,0 l/m 0 min 0 min 71 W/m 12,9 km/h (3 Bft) 95,74 %
06.06.2021 19:08 19,4 C 18,3 C 16,7 C 83 % 1023,0 hPa 0,0 l/m 0 min 0 min 79 W/m 6,4 km/h (2 Bft) 93,62 %
06.06.2021 19:10 19,4 C 18,3 C 16,7 C 83 % 1022,9 hPa 0,0 l/m 0 min 0 min 74 W/m 9,7 km/h (2 Bft) 95,74 %
06.06.2021 19:12 19,4 C 18,3 C 16,7 C 83 % 1022,9 hPa 0,0 l/m 0 min 0 min 64 W/m 6,4 km/h (2 Bft) 95,74 %
06.06.2021 19:14 19,3 C 18,3 C 16,7 C 83 % 1022,9 hPa 0,0 l/m 0 min 0 min 47 W/m 3,2 km/h (1 Bft) 95,65 %
06.06.2021 19:16 19,3 C 18,3 C 16,7 C 83 % 1022,9 hPa 0,0 l/m 0 min 0 min 40 W/m 9,7 km/h (2 Bft) 95,74 %
06.06.2021 19:18 19,3 C 18,3 C 16,7 C 83 % 1022,9 hPa 0,0 l/m 0 min 0 min 39 W/m 3,2 km/h (1 Bft) 95,74 %
06.06.2021 19:20 19,3 C 18,3 C 16,7 C 84 % 1022,9 hPa 0,0 l/m 0 min 0 min 40 W/m 6,4 km/h (2 Bft) 95,74 %
06.06.2021 19:22 19,2 C 18,3 C 16,1 C 83 % 1022,9 hPa 0,0 l/m 0 min 0 min 40 W/m 6,4 km/h (2 Bft) 95,74 %
06.06.2021 19:24 19,1 C 18,3 C 16,1 C 84 % 1022,9 hPa 0,0 l/m 0 min 0 min 42 W/m 9,7 km/h (2 Bft) 95,74 %
06.06.2021 19:26 19,1 C 18,3 C 16,1 C 83 % 1022,9 hPa 0,0 l/m 0 min 0 min 45 W/m 12,9 km/h (3 Bft) 97,83 %
06.06.2021 19:28 19,1 C 18,3 C 16,1 C 84 % 1022,9 hPa 0,0 l/m 0 min 0 min 46 W/m 3,2 km/h (1 Bft) 97,87 %
06.06.2021 19:30 19,1 C 18,3 C 16,1 C 84 % 1022,9 hPa 0,0 l/m 0 min 0 min 50 W/m 3,2 km/h (1 Bft) 97,87 %
06.06.2021 19:32 19,0 C 18,3 C 16,1 C 84 % 1022,9 hPa 0,0 l/m 0 min 0 min 53 W/m 6,4 km/h (2 Bft) 95,74 %
06.06.2021 19:34 19,0 C 18,3 C 16,1 C 84 % 1022,9 hPa 0,0 l/m 0 min 0 min 54 W/m 6,4 km/h (2 Bft) 97,87 %
06.06.2021 19:36 19,0 C 18,3 C 16,1 C 84 % 1022,9 hPa 0,0 l/m 0 min 0 min 53 W/m 3,2 km/h (1 Bft) 97,87 %
06.06.2021 19:38 19,0 C 18,3 C 16,1 C 84 % 1022,8 hPa 0,0 l/m 0 min 0 min 53 W/m 3,2 km/h (1 Bft) 97,83 %
06.06.2021 19:40 19,0 C 18,3 C 16,7 C 84 % 1022,8 hPa 0,0 l/m 0 min 0 min 53 W/m 3,2 km/h (1 Bft) 97,87 %
06.06.2021 19:42 19,0 C 18,3 C 16,7 C 84 % 1022,8 hPa 0,0 l/m 0 min 0 min 54 W/m 3,2 km/h (1 Bft) 93,62 %
06.06.2021 19:44 19,0 C 18,3 C 16,7 C 84 % 1022,8 hPa 0,0 l/m 0 min 0 min 55 W/m 3,2 km/h (1 Bft) 97,87 %
06.06.2021 19:46 19,0 C 18,3 C 16,7 C 84 % 1022,8 hPa 0,0 l/m 0 min 0 min 58 W/m 3,2 km/h (1 Bft) 97,87 %
06.06.2021 19:48 19,0 C 18,3 C 16,7 C 84 % 1022,8 hPa 0,0 l/m 0 min 0 min 58 W/m 3,2 km/h (1 Bft) 97,87 %
06.06.2021 19:50 19,0 C 18,3 C 16,7 C 84 % 1022,8 hPa 0,0 l/m 0 min 0 min 55 W/m 6,4 km/h (2 Bft) 97,83 %
06.06.2021 19:52 19,0 C 18,3 C 16,7 C 84 % 1022,8 hPa 0,0 l/m 0 min 0 min 52 W/m 9,7 km/h (2 Bft) 97,87 %
06.06.2021 19:54 19,0 C 18,3 C 16,7 C 84 % 1022,9 hPa 0,0 l/m 0 min 0 min 50 W/m 3,2 km/h (1 Bft) 97,87 %
06.06.2021 19:56 19,0 C 18,3 C 16,7 C 84 % 1022,9 hPa 0,0 l/m 0 min 0 min 49 W/m 6,4 km/h (2 Bft) 97,87 %
06.06.2021 19:58 19,0 C 18,3 C 16,7 C 83 % 1022,9 hPa 0,0 l/m 0 min 0 min 49 W/m 9,7 km/h (2 Bft) 93,62 %
06.06.2021 20:00 18,9 C 18,3 C 16,1 C 83 % 1022,9 hPa 0,0 l/m 0 min 0 min 48 W/m 9,7 km/h (2 Bft) 97,87 %
06.06.2021 20:02 18,9 C 18,3 C 16,1 C 83 % 1022,9 hPa 0,0 l/m 0 min 0 min 46 W/m 9,7 km/h (2 Bft) 97,83 %
06.06.2021 20:04 18,9 C 18,3 C 16,1 C 83 % 1022,9 hPa 0,0 l/m 0 min 0 min 42 W/m 9,7 km/h (2 Bft) 97,87 %
06.06.2021 20:06 18,9 C 18,3 C 16,1 C 83 % 1022,9 hPa 0,0 l/m 0 min 0 min 42 W/m 6,4 km/h (2 Bft) 97,87 %
06.06.2021 20:08 18,9 C 18,3 C 16,1 C 83 % 1022,9 hPa 0,0 l/m 0 min 0 min 42 W/m 9,7 km/h (2 Bft) 97,87 %
06.06.2021 20:10 18,9 C 18,3 C 16,1 C 83 % 1022,9 hPa 0,0 l/m 0 min 0 min 43 W/m 6,4 km/h (2 Bft) 97,87 %
06.06.2021 20:12 18,9 C 18,3 C 16,1 C 83 % 1022,9 hPa 0,0 l/m 0 min 0 min 44 W/m 12,9 km/h (3 Bft) 100,00 %
06.06.2021 20:14 18,9 C 18,3 C 16,1 C 83 % 1022,9 hPa 0,0 l/m 0 min 0 min 42 W/m 9,7 km/h (2 Bft) 100,00 %
06.06.2021 20:16 18,9 C 18,3 C 16,1 C 83 % 1022,9 hPa 0,0 l/m 0 min 0 min 40 W/m 6,4 km/h (2 Bft) 100,00 %
06.06.2021 20:18 18,9 C 18,3 C 16,1 C 83 % 1022,9 hPa 0,0 l/m 0 min 0 min 35 W/m 9,7 km/h (2 Bft) 97,87 %
06.06.2021 20:20 18,9 C 18,3 C 16,1 C 83 % 1022,9 hPa 0,0 l/m 0 min 0 min 32 W/m 6,4 km/h (2 Bft) 100,00 %
06.06.2021 20:22 18,9 C 18,3 C 16,1 C 83 % 1022,9 hPa 0,0 l/m 0 min 0 min 30 W/m 12,9 km/h (3 Bft) 97,87 %
06.06.2021 20:24 18,9 C 18,3 C 16,1 C 83 % 1022,9 hPa 0,0 l/m 0 min 0 min 30 W/m 6,4 km/h (2 Bft) 100,00 %
06.06.2021 20:26 18,9 C 18,3 C 16,1 C 83 % 1023,0 hPa 0,0 l/m 0 min 0 min 28 W/m 6,4 km/h (2 Bft) 100,00 %
06.06.2021 20:28 18,8 C 17,8 C 16,1 C 83 % 1022,9 hPa 0,0 l/m 0 min 0 min 27 W/m 3,2 km/h (1 Bft) 97,87 %
06.06.2021 20:30 18,8 C 17,8 C 16,1 C 83 % 1023,0 hPa 0,0 l/m 0 min 0 min 26 W/m 3,2 km/h (1 Bft) 100,00 %
06.06.2021 20:32 18,8 C 17,8 C 16,1 C 83 % 1022,9 hPa 0,0 l/m 0 min 0 min 26 W/m 3,2 km/h (1 Bft) 100,00 %
06.06.2021 20:34 18,8 C 17,8 C 16,1 C 83 % 1023,0 hPa 0,0 l/m 0 min 0 min 25 W/m 3,2 km/h (1 Bft) 100,00 %
06.06.2021 20:36 18,8 C 17,8 C 16,1 C 83 % 1023,0 hPa 0,0 l/m 0 min 0 min 23 W/m 6,4 km/h (2 Bft) 97,87 %
06.06.2021 20:38 18,8 C 17,8 C 16,1 C 83 % 1022,9 hPa 0,0 l/m 0 min 0 min 23 W/m 3,2 km/h (1 Bft) 95,74 %
06.06.2021 20:40 18,8 C 17,8 C 16,1 C 83 % 1022,9 hPa 0,0 l/m 0 min 0 min 23 W/m 3,2 km/h (1 Bft) 100,00 %
06.06.2021 20:42 18,8 C 17,8 C 16,1 C 84 % 1023,0 hPa 0,0 l/m 0 min 0 min 21 W/m 9,7 km/h (2 Bft) 100,00 %
06.06.2021 20:44 18,8 C 17,8 C 16,1 C 84 % 1022,9 hPa 0,0 l/m 0 min 0 min 21 W/m 3,2 km/h (1 Bft) 100,00 %
06.06.2021 20:46 18,8 C 17,8 C 16,1 C 84 % 1022,9 hPa 0,0 l/m 0 min 0 min 21 W/m 3,2 km/h (1 Bft) 97,87 %
06.06.2021 20:48 18,7 C 17,8 C 16,1 C 84 % 1022,9 hPa 0,0 l/m 0 min 0 min 19 W/m 9,7 km/h (2 Bft) 100,00 %
06.06.2021 20:50 18,7 C 17,8 C 16,1 C 84 % 1022,9 hPa 0,0 l/m 0 min 0 min 19 W/m 3,2 km/h (1 Bft) 100,00 %
06.06.2021 20:52 18,7 C 17,8 C 16,1 C 84 % 1023,0 hPa 0,0 l/m 0 min 0 min 18 W/m 6,4 km/h (2 Bft) 100,00 %
06.06.2021 20:54 18,7 C 17,8 C 16,1 C 84 % 1023,0 hPa 0,0 l/m 0 min 0 min 17 W/m 9,7 km/h (2 Bft) 100,00 %
06.06.2021 20:56 18,6 C 17,8 C 16,1 C 84 % 1023,1 hPa 0,0 l/m 0 min 0 min 16 W/m 9,7 km/h (2 Bft) 100,00 %
06.06.2021 20:58 18,6 C 17,8 C 16,1 C 84 % 1023,1 hPa 0,0 l/m 0 min 0 min 16 W/m 6,4 km/h (2 Bft) 97,87 %
06.06.2021 21:00 18,6 C 17,8 C 15,6 C 84 % 1023,1 hPa 0,0 l/m 0 min 0 min 16 W/m 6,4 km/h (2 Bft) 95,65 %
06.06.2021 21:02 18,6 C 17,8 C 15,6 C 84 % 1023,1 hPa 0,0 l/m 0 min 0 min 14 W/m 9,7 km/h (2 Bft) 97,87 %
06.06.2021 21:04 18,6 C 17,8 C 15,6 C 84 % 1023,1 hPa 0,0 l/m 0 min 0 min 14 W/m 9,7 km/h (2 Bft) 97,87 %
06.06.2021 21:06 18,5 C 17,8 C 15,6 C 84 % 1023,2 hPa 0,0 l/m 0 min 0 min 13 W/m 16,1 km/h (3 Bft) 97,87 %
06.06.2021 21:08 18,5 C 17,8 C 15,6 C 84 % 1023,2 hPa 0,0 l/m 0 min 0 min 12 W/m 9,7 km/h (2 Bft) 97,87 %
06.06.2021 21:10 18,5 C 17,8 C 15,6 C 84 % 1023,2 hPa 0,0 l/m 0 min 0 min 11 W/m 9,7 km/h (2 Bft) 97,87 %
06.06.2021 21:12 18,5 C 17,8 C 15,6 C 84 % 1023,3 hPa 0,0 l/m 0 min 0 min 11 W/m 9,7 km/h (2 Bft) 97,83 %
06.06.2021 21:14 18,5 C 17,8 C 15,6 C 84 % 1023,3 hPa 0,0 l/m 0 min 0 min 10 W/m 6,4 km/h (2 Bft) 97,87 %
06.06.2021 21:16 18,5 C 17,8 C 15,6 C 84 % 1023,2 hPa 0,0 l/m 0 min 0 min 9 W/m 9,7 km/h (2 Bft) 97,87 %
06.06.2021 21:18 18,4 C 17,2 C 15,6 C 84 % 1023,2 hPa 0,0 l/m 0 min 0 min 8 W/m 12,9 km/h (3 Bft) 95,74 %
06.06.2021 21:20 18,4 C 17,2 C 15,6 C 84 % 1023,2 hPa 0,0 l/m 0 min 0 min 7 W/m 6,4 km/h (2 Bft) 97,87 %
06.06.2021 21:22 18,4 C 17,2 C 15,6 C 84 % 1023,2 hPa 0,0 l/m 0 min 0 min 6 W/m 6,4 km/h (2 Bft) 95,74 %
06.06.2021 21:24 18,4 C 17,2 C 15,6 C 84 % 1023,3 hPa 0,0 l/m 0 min 0 min 5 W/m 6,4 km/h (2 Bft) 97,87 %
06.06.2021 21:26 18,4 C 17,2 C 15,6 C 84 % 1023,3 hPa 0,0 l/m 0 min 0 min 5 W/m 3,2 km/h (1 Bft) 97,83 %
06.06.2021 21:28 18,4 C 17,2 C 15,6 C 84 % 1023,3 hPa 0,0 l/m 0 min 0 min 5 W/m 6,4 km/h (2 Bft) 97,87 %
06.06.2021 21:30 18,3 C 17,2 C 15,6 C 84 % 1023,3 hPa 0,0 l/m 0 min 0 min 3 W/m 3,2 km/h (1 Bft) 97,87 %
06.06.2021 21:32 18,3 C 17,2 C 15,6 C 84 % 1023,3 hPa 0,0 l/m 0 min 0 min 0 W/m 6,4 km/h (2 Bft) 95,74 %
06.06.2021 21:34 18,3 C 17,2 C 15,6 C 85 % 1023,3 hPa 0,0 l/m 0 min 0 min 0 W/m 3,2 km/h (1 Bft) 95,74 %
06.06.2021 21:36 18,3 C 17,2 C 15,6 C 85 % 1023,3 hPa 0,0 l/m 0 min 0 min 0 W/m 3,2 km/h (1 Bft) 95,65 %
06.06.2021 21:38 18,3 C 17,2 C 15,6 C 85 % 1023,4 hPa 0,0 l/m 0 min 0 min 0 W/m 12,9 km/h (3 Bft) 95,74 %
06.06.2021 21:40 18,3 C 17,2 C 15,6 C 85 % 1023,4 hPa 0,0 l/m 0 min 0 min 0 W/m 9,7 km/h (2 Bft) 91,49 %
06.06.2021 21:42 18,3 C 17,2 C 15,6 C 85 % 1023,4 hPa 0,0 l/m 0 min 0 min 0 W/m 6,4 km/h (2 Bft) 93,62 %
06.06.2021 21:44 18,2 C 17,2 C 15,6 C 85 % 1023,4 hPa 0,0 l/m 0 min 0 min 0 W/m 3,2 km/h (1 Bft) 95,74 %
06.06.2021 21:46 18,2 C 17,2 C 15,6 C 85 % 1023,4 hPa 0,0 l/m 0 min 0 min 0 W/m 6,4 km/h (2 Bft) 97,87 %
06.06.2021 21:48 18,2 C 17,2 C 15,6 C 85 % 1023,4 hPa 0,0 l/m 0 min 0 min 0 W/m 6,4 km/h (2 Bft) 97,83 %
06.06.2021 21:50 18,1 C 17,2 C 15,6 C 85 % 1023,5 hPa 0,0 l/m 0 min 0 min 0 W/m 6,4 km/h (2 Bft) 95,74 %
06.06.2021 21:52 18,1 C 17,2 C 15,6 C 86 % 1023,4 hPa 0,0 l/m 0 min 0 min 0 W/m 0,0 km/h (0 Bft) 97,87 %
06.06.2021 21:54 18,1 C 17,2 C 15,6 C 86 % 1023,5 hPa 0,0 l/m 0 min 0 min 0 W/m 9,7 km/h (2 Bft) 97,87 %
06.06.2021 21:56 18,1 C 17,2 C 15,6 C 86 % 1023,5 hPa 0,0 l/m 0 min 0 min 0 W/m 9,7 km/h (2 Bft) 97,87 %
06.06.2021 21:58 18,1 C 17,2 C 15,6 C 86 % 1023,5 hPa 0,0 l/m 0 min 0 min 0 W/m 6,4 km/h (2 Bft) 95,74 %
06.06.2021 22:00 18,1 C 17,2 C 15,6 C 86 % 1023,5 hPa 0,0 l/m 0 min 0 min 0 W/m 3,2 km/h (1 Bft) 97,83 %
06.06.2021 22:02 18,1 C 17,2 C 15,6 C 86 % 1023,5 hPa 0,0 l/m 0 min 0 min 0 W/m 12,9 km/h (3 Bft) 97,87 %
06.06.2021 22:04 18,0 C 17,2 C 15,6 C 87 % 1023,5 hPa 0,0 l/m 0 min 0 min 0 W/m 16,1 km/h (3 Bft) 97,87 %
06.06.2021 22:06 18,0 C 17,2 C 15,6 C 87 % 1023,5 hPa 0,0 l/m 0 min 0 min 0 W/m 9,7 km/h (2 Bft) 97,87 %
06.06.2021 22:08 18,0 C 17,2 C 15,6 C 87 % 1023,5 hPa 0,0 l/m 0 min 0 min 0 W/m 9,7 km/h (2 Bft) 97,87 %
06.06.2021 22:10 18,0 C 16,7 C 15,0 C 87 % 1023,5 hPa 0,0 l/m 0 min 0 min 0 W/m 6,4 km/h (2 Bft) 97,83 %
06.06.2021 22:12 17,9 C 16,7 C 15,0 C 87 % 1023,5 hPa 0,0 l/m 0 min 0 min 0 W/m 9,7 km/h (2 Bft) 95,74 %
06.06.2021 22:14 17,9 C 16,7 C 15,0 C 87 % 1023,5 hPa 0,0 l/m 0 min 0 min 0 W/m 6,4 km/h (2 Bft) 97,87 %
06.06.2021 22:16 17,9 C 16,7 C 15,0 C 87 % 1023,5 hPa 0,0 l/m 0 min 0 min 0 W/m 6,4 km/h (2 Bft) 97,87 %
06.06.2021 22:18 17,9 C 16,7 C 15,0 C 87 % 1023,5 hPa 0,0 l/m 0 min 0 min 0 W/m 6,4 km/h (2 Bft) 93,62 %
06.06.2021 22:20 17,9 C 16,7 C 15,0 C 88 % 1023,5 hPa 0,0 l/m 0 min 0 min 0 W/m 3,2 km/h (1 Bft) 93,62 %
06.06.2021 22:22 17,9 C 16,7 C 15,0 C 88 % 1023,5 hPa 0,0 l/m 0 min 0 min 0 W/m 6,4 km/h (2 Bft) 97,83 %
06.06.2021 22:24 17,8 C 16,7 C 15,0 C 88 % 1023,5 hPa 0,0 l/m 0 min 0 min 0 W/m 6,4 km/h (2 Bft) 100,00 %
06.06.2021 22:26 17,8 C 16,7 C 15,0 C 88 % 1023,5 hPa 0,0 l/m 0 min 0 min 0 W/m 9,7 km/h (2 Bft) 100,00 %
06.06.2021 22:28 17,8 C 16,7 C 15,0 C 88 % 1023,5 hPa 0,0 l/m 0 min 0 min 0 W/m 6,4 km/h (2 Bft) 100,00 %
06.06.2021 22:30 17,8 C 16,7 C 15,0 C 88 % 1023,6 hPa 0,0 l/m 0 min 0 min 0 W/m 6,4 km/h (2 Bft) 100,00 %
06.06.2021 22:32 17,8 C 16,7 C 15,0 C 88 % 1023,6 hPa 0,0 l/m 0 min 0 min 0 W/m 3,2 km/h (1 Bft) 100,00 %
06.06.2021 22:34 17,8 C 16,7 C 15,0 C 88 % 1023,5 hPa 0,0 l/m 0 min 0 min 0 W/m 9,7 km/h (2 Bft) 97,83 %
06.06.2021 22:36 17,8 C 16,7 C 15,0 C 88 % 1023,6 hPa 0,0 l/m 0 min 0 min 0 W/m 6,4 km/h (2 Bft) 100,00 %
06.06.2021 22:38 17,8 C 16,7 C 15,0 C 89 % 1023,6 hPa 0,0 l/m 0 min 0 min 0 W/m 3,2 km/h (1 Bft) 100,00 %
06.06.2021 22:40 17,7 C 16,7 C 15,0 C 89 % 1023,6 hPa 0,0 l/m 0 min 0 min 0 W/m 3,2 km/h (1 Bft) 100,00 %
06.06.2021 22:42 17,7 C 16,7 C 15,0 C 89 % 1023,5 hPa 0,0 l/m 0 min 0 min 0 W/m 9,7 km/h (2 Bft) 100,00 %
06.06.2021 22:44 17,7 C 16,7 C 15,0 C 89 % 1023,6 hPa 0,0 l/m 0 min 0 min 0 W/m 12,9 km/h (3 Bft) 100,00 %
06.06.2021 22:46 17,6 C 16,7 C 15,0 C 88 % 1023,5 hPa 0,0 l/m 0 min 0 min 0 W/m 9,7 km/h (2 Bft) 100,00 %
06.06.2021 22:48 17,6 C 16,7 C 15,0 C 88 % 1023,5 hPa 0,0 l/m 0 min 0 min 0 W/m 6,4 km/h (2 Bft) 100,00 %
06.06.2021 22:50 17,6 C 16,7 C 15,0 C 89 % 1023,5 hPa 0,0 l/m 0 min 0 min 0 W/m 3,2 km/h (1 Bft) 100,00 %
06.06.2021 22:52 17,6 C 16,7 C 15,0 C 89 % 1023,6 hPa 0,0 l/m 0 min 0 min 0 W/m 6,4 km/h (2 Bft) 95,74 %
06.06.2021 22:54 17,5 C 16,7 C 15,0 C 89 % 1023,5 hPa 0,0 l/m 0 min 0 min 0 W/m 6,4 km/h (2 Bft) 100,00 %
06.06.2021 22:56 17,5 C 16,7 C 15,0 C 89 % 1023,5 hPa 0,0 l/m 0 min 0 min 0 W/m 6,4 km/h (2 Bft) 95,74 %
06.06.2021 22:58 17,5 C 16,7 C 15,0 C 89 % 1023,5 hPa 0,0 l/m 0 min 0 min 0 W/m 6,4 km/h (2 Bft) 100,00 %
06.06.2021 23:00 17,5 C 16,7 C 15,0 C 89 % 1023,5 hPa 0,0 l/m 0 min 0 min 0 W/m 6,4 km/h (2 Bft) 97,87 %
06.06.2021 23:02 17,5 C 16,7 C 15,0 C 89 % 1023,5 hPa 0,0 l/m 0 min 0 min 0 W/m 6,4 km/h (2 Bft) 100,00 %
06.06.2021 23:04 17,5 C 16,7 C 15,0 C 89 % 1023,5 hPa 0,0 l/m 0 min 0 min 0 W/m 6,4 km/h (2 Bft) 100,00 %
06.06.2021 23:06 17,5 C 16,7 C 15,0 C 89 % 1023,5 hPa 0,0 l/m 0 min 0 min 0 W/m 6,4 km/h (2 Bft) 100,00 %
06.06.2021 23:08 17,4 C 16,7 C 15,0 C 89 % 1023,5 hPa 0,0 l/m 0 min 0 min 0 W/m 6,4 km/h (2 Bft) 97,87 %
06.06.2021 23:10 17,4 C 16,7 C 15,0 C 89 % 1023,5 hPa 0,0 l/m 0 min 0 min 0 W/m 6,4 km/h (2 Bft) 95,65 %
06.06.2021 23:12 17,4 C 16,7 C 15,0 C 89 % 1023,5 hPa 0,0 l/m 0 min 0 min 0 W/m 6,4 km/h (2 Bft) 97,87 %
06.06.2021 23:14 17,4 C 16,7 C 15,0 C 89 % 1023,5 hPa 0,0 l/m 0 min 0 min 0 W/m 12,9 km/h (3 Bft) 97,87 %
06.06.2021 23:16 17,3 C 16,1 C 15,0 C 89 % 1023,5 hPa 0,0 l/m 0 min 0 min 0 W/m 6,4 km/h (2 Bft) 97,87 %
06.06.2021 23:18 17,3 C 16,1 C 15,0 C 90 % 1023,5 hPa 0,0 l/m 0 min 0 min 0 W/m 12,9 km/h (3 Bft) 97,87 %
06.06.2021 23:20 17,3 C 16,1 C 15,0 C 90 % 1023,5 hPa 0,0 l/m 0 min 0 min 0 W/m 9,7 km/h (2 Bft) 97,87 %
06.06.2021 23:22 17,3 C 16,1 C 15,0 C 90 % 1023,5 hPa 0,0 l/m 0 min 0 min 0 W/m 9,7 km/h (2 Bft) 52,27 %
06.06.2021 23:24 17,3 C 16,1 C 15,0 C 90 % 1023,6 hPa 0,0 l/m 0 min 0 min 0 W/m 6,4 km/h (2 Bft) 97,22 %
06.06.2021 23:26 17,3 C 16,1 C 15,0 C 90 % 1023,6 hPa 0,0 l/m 0 min 0 min 0 W/m 3,2 km/h (1 Bft) 97,83 %
06.06.2021 23:28 17,2 C 16,1 C 14,5 C 90 % 1023,5 hPa 0,0 l/m 0 min 0 min 0 W/m 9,7 km/h (2 Bft) 95,74 %
06.06.2021 23:30 17,2 C 16,1 C 14,5 C 90 % 1023,5 hPa 0,0 l/m 0 min 0 min 0 W/m 3,2 km/h (1 Bft) 98,31 %
06.06.2021 23:32 17,1 C 16,1 C 14,5 C 90 % 1023,5 hPa 0,0 l/m 0 min 0 min 0 W/m 9,7 km/h (2 Bft) 97,56 %
06.06.2021 23:34 17,1 C 16,1 C 14,5 C 90 % 1023,5 hPa 0,0 l/m 0 min 0 min 0 W/m 9,7 km/h (2 Bft) 96,15 %
06.06.2021 23:36 17,1 C 16,1 C 14,5 C 90 % 1023,5 hPa 0,0 l/m 0 min 0 min 0 W/m 9,7 km/h (2 Bft) 97,87 %
06.06.2021 23:38 17,1 C 16,1 C 15,0 C 90 % 1023,5 hPa 0,0 l/m 0 min 0 min 0 W/m 3,2 km/h (1 Bft) 97,87 %
06.06.2021 23:40 17,1 C 16,1 C 14,5 C 90 % 1023,5 hPa 0,0 l/m 0 min 0 min 0 W/m 6,4 km/h (2 Bft) 97,87 %
06.06.2021 23:42 17,1 C 16,1 C 14,5 C 90 % 1023,5 hPa 0,0 l/m 0 min 0 min 0 W/m 6,4 km/h (2 Bft) 97,87 %
06.06.2021 23:44 17,0 C 16,1 C 14,5 C 90 % 1023,5 hPa 0,0 l/m 0 min 0 min 0 W/m 9,7 km/h (2 Bft) 93,62 %
06.06.2021 23:46 17,0 C 16,1 C 14,5 C 90 % 1023,5 hPa 0,0 l/m 0 min 0 min 0 W/m 12,9 km/h (3 Bft) 95,65 %
06.06.2021 23:48 17,0 C 16,1 C 14,5 C 90 % 1023,5 hPa 0,0 l/m 0 min 0 min 0 W/m 12,9 km/h (3 Bft) 95,74 %
06.06.2021 23:50 17,0 C 16,1 C 14,5 C 90 % 1023,6 hPa 0,0 l/m 0 min 0 min 0 W/m 6,4 km/h (2 Bft) 95,74 %
06.06.2021 23:52 17,0 C 16,1 C 14,5 C 90 % 1023,5 hPa 0,0 l/m 0 min 0 min 0 W/m 6,4 km/h (2 Bft) 95,74 %
06.06.2021 23:54 17,0 C 16,1 C 14,5 C 90 % 1023,6 hPa 0,0 l/m 0 min 0 min 0 W/m 9,7 km/h (2 Bft) 93,62 %
06.06.2021 23:56 17,0 C 16,1 C 14,5 C 90 % 1023,5 hPa 0,0 l/m 0 min 0 min 0 W/m 6,4 km/h (2 Bft) 95,74 %
06.06.2021 23:58 17,0 C 16,1 C 14,5 C 90 % 1023,5 hPa 0,0 l/m 0 min 0 min 0 W/m 6,4 km/h (2 Bft) 93,48 %
_ Min-Zeit 06:58 04:38 04:30 18:46 19:38 - - - - 21:52 12:22
Minimum _ 14,0 C 13,3 C 12,8 C 81 % 1022,8 hPa - - - - 0,0 km/h (0 Bft) 46,51 %
_ Max-Zeit 18:42 18:32 18:36 05:18 12:30 00:00 18:08 00:00 18:32 00:24 00:30
Maximum _ 19,8 C 22,2 C 17,8 C 98 % 1024,3 hPa 0,0 l/m 4 min 0 min 452 W/m 22,5 km/h
N-NW (4 Bft)
100,00 %
Durchschnitt _ 16,2 C 15,9 C 14,8 C 92 % 1023,5 hPa #0,0 l/m #30 min. #0 min. 124 W/m 9,1 km/h (2 Bft) 97,53 %
© 2021 W. Hausmann